Time,TemperatureF,DewpointF,PressureIn,WindDirection,WindDirectionDegrees,WindSpeedMPH,WindSpeedGustMPH,Humidity,HourlyPrecipIn,Conditions,Clouds,dailyrainin,SoftwareType,DateUTC
2013-05-21 00:00:00,67.9,66.4,29.93,SW,225,5.0,9.0,95,0.00,,,0.01,VWS V14.01,2013-05-21 04:00:00,
2013-05-21 00:01:00,67.9,66.4,29.93,SW,225,6.0,9.0,95,0.00,,,0.01,VWS V14.01,2013-05-21 04:01:00,
2013-05-21 00:02:00,67.9,66.4,29.93,SW,225,3.0,9.0,95,0.00,,,0.01,VWS V14.01,2013-05-21 04:02:00,
2013-05-21 00:04:00,67.9,66.4,29.93,SW,225,6.0,9.0,95,0.00,,,0.01,VWS V14.01,2013-05-21 04:04:00,
2013-05-21 00:09:00,67.9,66.4,29.93,SW,228,4.0,8.0,95,0.00,,,0.00,VWS V14.01,2013-05-21 04:09:00,
2013-05-21 00:10:00,67.9,66.4,29.93,SW,228,6.0,8.0,95,0.00,,,0.00,VWS V14.01,2013-05-21 04:10:00,
2013-05-21 00:11:00,67.9,66.4,29.93,SW,226,2.0,8.0,95,0.00,,,0.00,VWS V14.01,2013-05-21 04:11:00,
2013-05-21 00:12:00,67.9,66.4,29.93,SW,226,6.0,8.0,95,0.00,,,0.00,VWS V14.01,2013-05-21 04:12:00,
2013-05-21 00:15:00,67.9,66.4,29.93,SW,225,1.0,8.0,95,0.00,,,0.00,VWS V14.01,2013-05-21 04:15:00,
2013-05-21 00:16:00,67.9,66.4,29.93,SW,225,0.0,8.0,95,0.00,,,0.00,VWS V14.01,2013-05-21 04:16:00,
2013-05-21 00:18:00,67.9,66.4,29.93,SW,225,0.0,8.0,95,0.00,,,0.00,VWS V14.01,2013-05-21 04:18:00,
2013-05-21 00:19:00,67.9,66.4,29.93,SW,225,0.0,8.0,95,0.00,,,0.00,VWS V14.01,2013-05-21 04:19:00,
2013-05-21 00:20:00,67.9,66.4,29.93,SW,225,0.0,8.0,95,0.00,,,0.00,VWS V14.01,2013-05-21 04:20:00,
2013-05-21 00:21:00,67.9,66.4,29.93,SW,225,0.0,8.0,95,0.00,,,0.00,VWS V14.01,2013-05-21 04:21:00,
2013-05-21 00:24:00,67.8,66.0,29.93,SW,225,0.0,8.0,94,0.00,,,0.00,VWS V14.01,2013-05-21 04:24:00,
2013-05-21 00:25:00,67.6,65.8,29.93,SW,226,3.0,8.0,94,0.00,,,0.00,VWS V14.01,2013-05-21 04:25:00,
2013-05-21 00:28:00,67.3,65.5,29.93,SW,226,6.0,8.0,94,0.00,,,0.00,VWS V14.01,2013-05-21 04:28:00,
2013-05-21 00:29:00,67.1,65.3,29.93,SW,226,5.0,8.0,94,0.00,,,0.00,VWS V14.01,2013-05-21 04:29:00,
2013-05-21 00:30:00,67.1,65.3,29.93,SW,226,6.0,8.0,94,0.00,,,0.00,VWS V14.01,2013-05-21 04:30:00,
2013-05-21 00:32:00,67.1,65.6,29.93,SW,225,0.0,8.0,95,0.00,,,0.00,VWS V14.01,2013-05-21 04:32:00,
2013-05-21 00:34:00,67.1,65.6,29.92,SW,226,9.0,9.0,95,0.00,,,0.00,VWS V14.01,2013-05-21 04:34:00,
2013-05-21 00:38:00,67.3,65.8,29.92,SW,225,0.0,9.0,95,0.00,,,0.00,VWS V14.01,2013-05-21 04:38:00,
2013-05-21 00:39:00,67.3,65.8,29.92,SW,225,4.0,9.0,95,0.00,,,0.00,VWS V14.01,2013-05-21 04:39:00,
2013-05-21 00:40:00,67.4,65.9,29.92,SW,225,4.0,9.0,95,0.00,,,0.00,VWS V14.01,2013-05-21 04:40:00,
2013-05-21 00:41:00,67.4,65.9,29.92,SW,225,0.0,9.0,95,0.00,,,0.00,VWS V14.01,2013-05-21 04:41:00,
2013-05-21 00:42:00,67.4,65.9,29.92,SW,225,0.0,9.0,95,0.00,,,0.00,VWS V14.01,2013-05-21 04:42:00,
2013-05-21 00:43:00,67.4,65.9,29.92,SW,225,0.0,9.0,95,0.00,,,0.00,VWS V14.01,2013-05-21 04:43:00,
2013-05-21 00:44:00,67.4,65.9,29.92,SW,225,0.0,9.0,95,0.00,,,0.00,VWS V14.01,2013-05-21 04:44:00,
2013-05-21 00:45:00,67.4,65.9,29.92,SW,225,0.0,9.0,95,0.00,,,0.00,VWS V14.01,2013-05-21 04:45:00,
2013-05-21 00:49:00,66.1,63.7,29.92,SW,225,0.0,9.0,92,0.00,,,0.00,VWS V14.01,2013-05-21 04:49:00,
2013-05-21 00:50:00,65.6,63.2,29.92,SW,225,0.0,9.0,92,0.00,,,0.00,VWS V14.01,2013-05-21 04:50:00,
2013-05-21 00:51:00,65.5,63.4,29.92,SW,225,0.0,9.0,93,0.00,,,0.00,VWS V14.01,2013-05-21 04:51:00,
2013-05-21 00:52:00,65.2,63.1,29.92,SW,225,0.0,9.0,93,0.00,,,0.00,VWS V14.01,2013-05-21 04:52:00,
2013-05-21 00:56:00,64.3,62.5,29.92,SW,225,0.0,9.0,94,0.00,,,0.00,VWS V14.01,2013-05-21 04:56:00,
2013-05-21 00:57:00,64.3,62.5,29.92,SW,224,0.0,9.0,94,0.00,,,0.00,VWS V14.01,2013-05-21 04:57:00,
2013-05-21 00:59:00,64.0,62.2,29.92,SW,224,0.0,9.0,94,0.00,,,0.00,VWS V14.01,2013-05-21 04:59:00,
2013-05-21 01:00:00,64.0,62.5,29.92,SW,224,5.0,9.0,95,0.00,,,0.00,VWS V14.01,2013-05-21 05:00:00,
2013-05-21 01:02:00,64.0,62.2,29.92,SW,225,0.0,9.0,94,0.00,,,0.00,VWS V14.01,2013-05-21 05:02:00,
2013-05-21 01:04:00,64.0,62.5,29.92,SW,225,0.0,9.0,95,0.00,,,0.00,VWS V14.01,2013-05-21 05:04:00,
2013-05-21 01:05:00,64.2,62.7,29.92,SW,225,2.0,4.0,95,0.00,,,0.00,VWS V14.01,2013-05-21 05:05:00,
2013-05-21 01:10:00,64.7,63.2,29.92,SW,225,0.0,4.0,95,0.00,,,0.00,VWS V14.01,2013-05-21 05:10:00,
2013-05-21 01:11:00,64.8,63.6,29.92,SW,224,0.0,4.0,96,0.00,,,0.00,VWS V14.01,2013-05-21 05:11:00,
2013-05-21 01:12:00,65.2,64.0,29.92,SW,224,0.0,4.0,96,0.00,,,0.00,VWS V14.01,2013-05-21 05:12:00,
2013-05-21 01:13:00,65.3,63.8,29.92,SW,224,0.0,4.0,95,0.00,,,0.00,VWS V14.01,2013-05-21 05:13:00,
2013-05-21 01:16:00,65.5,64.0,29.92,SW,225,0.0,4.0,95,0.00,,,0.00,VWS V14.01,2013-05-21 05:16:00,
2013-05-21 01:17:00,65.6,64.1,29.92,SW,225,0.0,4.0,95,0.00,,,0.00,VWS V14.01,2013-05-21 05:17:00,
2013-05-21 01:20:00,65.6,64.1,29.92,SW,225,0.0,4.0,95,0.00,,,0.00,VWS V14.01,2013-05-21 05:20:00,
2013-05-21 01:22:00,65.8,64.3,29.92,SW,225,0.0,4.0,95,0.00,,,0.00,VWS V14.01,2013-05-21 05:22:00,
2013-05-21 01:24:00,65.8,64.3,29.92,SW,224,0.0,4.0,95,0.00,,,0.00,VWS V14.01,2013-05-21 05:24:00,
2013-05-21 01:25:00,65.8,64.3,29.92,SW,224,0.0,4.0,95,0.00,,,0.00,VWS V14.01,2013-05-21 05:25:00,
2013-05-21 01:29:00,65.2,63.4,29.92,SW,224,0.0,4.0,94,0.00,,,0.00,VWS V14.01,2013-05-21 05:29:00,
2013-05-21 01:30:00,65.0,63.2,29.92,SW,225,0.0,4.0,94,0.00,,,0.00,VWS V14.01,2013-05-21 05:30:00,
2013-05-21 01:32:00,64.7,62.9,29.92,SW,225,0.0,4.0,94,0.00,,,0.00,VWS V14.01,2013-05-21 05:32:00,
2013-05-21 01:33:00,64.5,62.7,29.92,SW,224,0.0,4.0,94,0.00,,,0.00,VWS V14.01,2013-05-21 05:33:00,
2013-05-21 01:34:00,64.5,62.7,29.92,SW,224,3.0,4.0,94,0.00,,,0.00,VWS V14.01,2013-05-21 05:34:00,
2013-05-21 01:36:00,64.3,62.5,29.92,SW,224,0.0,2.0,94,0.00,,,0.00,VWS V14.01,2013-05-21 05:36:00,
2013-05-21 01:38:00,64.3,62.8,29.92,SW,224,0.0,5.0,95,0.00,,,0.00,VWS V14.01,2013-05-21 05:38:00,
2013-05-21 01:39:00,64.3,62.8,29.92,SW,224,5.0,5.0,95,0.00,,,0.00,VWS V14.01,2013-05-21 05:39:00,
2013-05-21 01:40:00,64.3,62.8,29.92,SW,225,2.0,5.0,95,0.00,,,0.00,VWS V14.01,2013-05-21 05:40:00,
2013-05-21 01:44:00,64.8,63.3,29.92,SW,224,0.0,5.0,95,0.00,,,0.00,VWS V14.01,2013-05-21 05:44:00,
2013-05-21 01:45:00,65.0,63.8,29.92,SW,224,0.0,5.0,96,0.00,,,0.00,VWS V14.01,2013-05-21 05:45:00,
2013-05-21 01:46:00,65.0,63.8,29.92,SW,225,0.0,5.0,96,0.00,,,0.00,VWS V14.01,2013-05-21 05:46:00,
2013-05-21 01:48:00,65.3,64.1,29.92,SW,225,0.0,5.0,96,0.00,,,0.00,VWS V14.01,2013-05-21 05:48:00,
2013-05-21 01:50:00,65.5,64.3,29.92,SW,225,0.0,5.0,96,0.00,,,0.00,VWS V14.01,2013-05-21 05:50:00,
2013-05-21 01:52:00,65.6,64.4,29.92,SW,224,2.0,5.0,96,0.00,,,0.00,VWS V14.01,2013-05-21 05:52:00,
2013-05-21 01:55:00,65.8,64.3,29.92,SW,224,0.0,5.0,95,0.00,,,0.00,VWS V14.01,2013-05-21 05:55:00,
2013-05-21 01:57:00,66.0,64.5,29.92,SW,224,0.0,5.0,95,0.00,,,0.00,VWS V14.01,2013-05-21 05:57:00,
2013-05-21 01:58:00,66.0,64.5,29.92,SW,224,0.0,5.0,95,0.00,,,0.00,VWS V14.01,2013-05-21 05:58:00,
2013-05-21 02:00:00,66.1,64.6,29.91,SW,225,0.0,5.0,95,0.00,,,0.00,VWS V14.01,2013-05-21 06:00:00,
2013-05-21 02:01:00,66.0,64.5,29.92,SW,224,0.0,5.0,95,0.00,,,0.00,VWS V14.01,2013-05-21 06:01:00,
2013-05-21 02:02:00,66.0,64.5,29.92,SW,224,0.0,5.0,95,0.00,,,0.00,VWS V14.01,2013-05-21 06:02:00,
2013-05-21 02:03:00,66.1,64.6,29.92,SW,225,0.0,5.0,95,0.00,,,0.00,VWS V14.01,2013-05-21 06:03:00,
2013-05-21 02:04:00,66.1,64.6,29.91,SW,225,0.0,5.0,95,0.00,,,0.00,VWS V14.01,2013-05-21 06:04:00,
2013-05-21 02:08:00,66.1,64.6,29.91,SW,224,0.0,4.0,95,0.00,,,0.00,VWS V14.01,2013-05-21 06:08:00,
2013-05-21 02:10:00,66.1,64.6,29.91,SW,224,0.0,5.0,95,0.00,,,0.00,VWS V14.01,2013-05-21 06:10:00,
2013-05-21 02:11:00,66.1,64.6,29.91,SW,224,0.0,5.0,95,0.00,,,0.00,VWS V14.01,2013-05-21 06:11:00,
2013-05-21 02:12:00,66.1,64.6,29.91,SW,224,0.0,5.0,95,0.00,,,0.00,VWS V14.01,2013-05-21 06:12:00,
2013-05-21 02:14:00,66.1,64.6,29.91,SW,224,0.0,5.0,95,0.00,,,0.00,VWS V14.01,2013-05-21 06:14:00,
2013-05-21 02:18:00,66.0,64.5,29.91,SW,224,0.0,5.0,95,0.00,,,0.00,VWS V14.01,2013-05-21 06:18:00,
2013-05-21 02:19:00,66.0,64.5,29.91,SW,224,0.0,5.0,95,0.00,,,0.00,VWS V14.01,2013-05-21 06:19:00,
2013-05-21 02:22:00,66.0,64.5,29.91,SW,225,0.0,5.0,95,0.00,,,0.00,VWS V14.01,2013-05-21 06:22:00,
2013-05-21 02:24:00,65.8,64.3,29.91,SW,224,0.0,5.0,95,0.00,,,0.00,VWS V14.01,2013-05-21 06:24:00,
2013-05-21 02:25:00,65.8,64.3,29.91,SW,224,0.0,5.0,95,0.00,,,0.00,VWS V14.01,2013-05-21 06:25:00,
2013-05-21 02:27:00,65.8,64.3,29.91,SW,224,0.0,5.0,95,0.00,,,0.00,VWS V14.01,2013-05-21 06:27:00,
2013-05-21 02:28:00,65.8,64.3,29.91,SW,224,0.0,5.0,95,0.00,,,0.00,VWS V14.01,2013-05-21 06:28:00,
2013-05-21 02:29:00,65.8,64.3,29.91,SW,225,0.0,5.0,95,0.00,,,0.00,VWS V14.01,2013-05-21 06:29:00,
2013-05-21 02:30:00,65.6,64.1,29.91,SW,225,0.0,5.0,95,0.00,,,0.00,VWS V14.01,2013-05-21 06:30:00,
2013-05-21 02:31:00,65.6,64.1,29.91,SW,224,0.0,5.0,95,0.00,,,0.00,VWS V14.01,2013-05-21 06:31:00,
2013-05-21 02:34:00,65.6,64.1,29.91,SW,224,0.0,5.0,95,0.00,,,0.00,VWS V14.01,2013-05-21 06:34:00,
2013-05-21 02:35:00,65.6,64.1,29.91,SW,224,0.0,0.0,95,0.00,,,0.00,VWS V14.01,2013-05-21 06:35:00,
2013-05-21 02:36:00,65.6,64.1,29.91,SW,224,0.0,0.0,95,0.00,,,0.00,VWS V14.01,2013-05-21 06:36:00,
2013-05-21 02:39:00,65.5,64.0,29.91,SW,224,0.0,0.0,95,0.00,,,0.00,VWS V14.01,2013-05-21 06:39:00,
2013-05-21 02:40:00,65.5,64.3,29.91,SW,225,0.0,0.0,96,0.00,,,0.00,VWS V14.01,2013-05-21 06:40:00,
2013-05-21 02:42:00,65.6,64.4,29.91,SW,224,0.0,0.0,96,0.00,,,0.00,VWS V14.01,2013-05-21 06:42:00,
2013-05-21 02:45:00,65.6,64.4,29.91,SW,225,0.0,0.0,96,0.00,,,0.00,VWS V14.01,2013-05-21 06:45:00,
2013-05-21 02:46:00,65.5,64.3,29.91,SW,225,0.0,0.0,96,0.00,,,0.00,VWS V14.01,2013-05-21 06:46:00,
2013-05-21 02:47:00,65.5,64.3,29.91,SW,224,0.0,0.0,96,0.00,,,0.00,VWS V14.01,2013-05-21 06:47:00,
2013-05-21 02:48:00,65.6,64.4,29.91,SW,224,0.0,0.0,96,0.00,,,0.00,VWS V14.01,2013-05-21 06:48:00,
2013-05-21 02:50:00,65.6,64.4,29.91,SW,224,0.0,0.0,96,0.00,,,0.00,VWS V14.01,2013-05-21 06:50:00,
2013-05-21 02:53:00,65.6,64.4,29.91,SW,224,0.0,0.0,96,0.00,,,0.00,VWS V14.01,2013-05-21 06:53:00,
2013-05-21 02:54:00,65.6,64.4,29.91,SW,224,0.0,0.0,96,0.00,,,0.00,VWS V14.01,2013-05-21 06:54:00,
2013-05-21 02:56:00,65.6,64.4,29.91,SW,224,0.0,4.0,96,0.00,,,0.00,VWS V14.01,2013-05-21 06:56:00,
2013-05-21 02:58:00,65.8,64.6,29.91,SW,224,0.0,4.0,96,0.00,,,0.00,VWS V14.01,2013-05-21 06:58:00,
2013-05-21 02:59:00,65.8,64.6,29.91,SW,224,0.0,4.0,96,0.00,,,0.00,VWS V14.01,2013-05-21 06:59:00,
2013-05-21 03:00:00,65.8,64.6,29.91,SW,224,0.0,4.0,96,0.00,,,0.00,VWS V14.01,2013-05-21 07:00:00,
2013-05-21 03:01:00,65.8,64.6,29.91,SW,224,3.0,5.0,96,0.00,,,0.00,VWS V14.01,2013-05-21 07:01:00,
2013-05-21 03:04:00,65.8,64.6,29.91,SW,224,2.0,6.0,96,0.00,,,0.00,VWS V14.01,2013-05-21 07:04:00,
2013-05-21 03:06:00,65.8,64.6,29.91,SW,224,0.0,5.0,96,0.00,,,0.00,VWS V14.01,2013-05-21 07:06:00,
2013-05-21 03:07:00,65.8,64.6,29.91,SW,224,0.0,5.0,96,0.00,,,0.00,VWS V14.01,2013-05-21 07:07:00,
2013-05-21 03:09:00,65.8,64.6,29.91,SW,224,0.0,5.0,96,0.00,,,0.00,VWS V14.01,2013-05-21 07:09:00,
2013-05-21 03:10:00,65.8,64.6,29.91,SW,224,0.0,5.0,96,0.00,,,0.00,VWS V14.01,2013-05-21 07:10:00,
2013-05-21 03:12:00,65.8,64.6,29.91,SW,224,0.0,5.0,96,0.00,,,0.00,VWS V14.01,2013-05-21 07:12:00,
2013-05-21 03:15:00,65.8,64.6,29.91,SW,224,0.0,5.0,96,0.00,,,0.00,VWS V14.01,2013-05-21 07:15:00,
2013-05-21 03:16:00,65.8,64.6,29.91,SW,224,0.0,5.0,96,0.00,,,0.00,VWS V14.01,2013-05-21 07:16:00,
2013-05-21 03:17:00,65.8,64.6,29.91,SW,224,0.0,5.0,96,0.00,,,0.00,VWS V14.01,2013-05-21 07:17:00,
2013-05-21 03:19:00,66.0,64.8,29.91,SW,224,1.0,6.0,96,0.00,,,0.00,VWS V14.01,2013-05-21 07:19:00,
2013-05-21 03:21:00,66.0,64.8,29.91,SW,224,0.0,6.0,96,0.00,,,0.00,VWS V14.01,2013-05-21 07:21:00,
2013-05-21 03:22:00,65.8,64.6,29.91,SW,224,4.0,6.0,96,0.00,,,0.00,VWS V14.01,2013-05-21 07:22:00,
2013-05-21 03:23:00,65.8,64.6,29.91,SW,224,0.0,6.0,96,0.00,,,0.00,VWS V14.01,2013-05-21 07:23:00,
2013-05-21 03:26:00,65.8,64.6,29.91,SW,224,0.0,6.0,96,0.00,,,0.00,VWS V14.01,2013-05-21 07:26:00,
2013-05-21 03:28:00,65.8,64.6,29.91,SW,225,0.0,6.0,96,0.00,,,0.00,VWS V14.01,2013-05-21 07:28:00,
2013-05-21 03:29:00,65.8,64.6,29.91,SW,224,0.0,6.0,96,0.00,,,0.00,VWS V14.01,2013-05-21 07:29:00,
2013-05-21 03:30:00,65.6,64.4,29.91,SW,224,0.0,6.0,96,0.00,,,0.00,VWS V14.01,2013-05-21 07:30:00,
2013-05-21 03:33:00,65.6,64.4,29.91,SW,224,0.0,6.0,96,0.00,,,0.00,VWS V14.01,2013-05-21 07:33:00,
2013-05-21 03:34:00,65.6,64.4,29.91,SW,224,0.0,6.0,96,0.00,,,0.00,VWS V14.01,2013-05-21 07:34:00,
2013-05-21 03:35:00,65.6,64.4,29.91,SW,224,0.0,1.0,96,0.00,,,0.00,VWS V14.01,2013-05-21 07:35:00,
2013-05-21 03:36:00,65.6,64.4,29.91,SW,224,0.0,1.0,96,0.00,,,0.00,VWS V14.01,2013-05-21 07:36:00,
2013-05-21 03:37:00,65.6,64.4,29.91,SW,225,0.0,1.0,96,0.00,,,0.00,VWS V14.01,2013-05-21 07:37:00,
2013-05-21 03:39:00,65.5,64.3,29.91,SW,224,0.0,1.0,96,0.00,,,0.00,VWS V14.01,2013-05-21 07:39:00,
2013-05-21 03:40:00,65.5,64.3,29.91,SW,224,0.0,1.0,96,0.00,,,0.00,VWS V14.01,2013-05-21 07:40:00,
2013-05-21 03:42:00,65.5,64.3,29.91,SW,224,0.0,1.0,96,0.00,,,0.00,VWS V14.01,2013-05-21 07:42:00,
2013-05-21 03:44:00,65.5,64.3,29.91,SW,224,0.0,1.0,96,0.00,,,0.00,VWS V14.01,2013-05-21 07:44:00,
2013-05-21 03:45:00,65.5,64.3,29.91,SW,224,0.0,1.0,96,0.00,,,0.00,VWS V14.01,2013-05-21 07:45:00,
2013-05-21 03:46:00,65.5,64.3,29.91,SW,224,0.0,1.0,96,0.00,,,0.00,VWS V14.01,2013-05-21 07:46:00,
2013-05-21 03:49:00,65.5,64.3,29.90,SW,225,0.0,1.0,96,0.00,,,0.00,VWS V14.01,2013-05-21 07:49:00,
2013-05-21 03:52:00,65.3,64.1,29.90,SW,224,0.0,1.0,96,0.00,,,0.00,VWS V14.01,2013-05-21 07:52:00,
2013-05-21 03:53:00,65.3,64.1,29.90,SW,224,0.0,1.0,96,0.00,,,0.00,VWS V14.01,2013-05-21 07:53:00,
2013-05-21 03:54:00,65.3,64.1,29.90,SW,224,0.0,1.0,96,0.00,,,0.00,VWS V14.01,2013-05-21 07:54:00,
2013-05-21 03:57:00,65.2,64.0,29.90,SW,224,0.0,1.0,96,0.00,,,0.00,VWS V14.01,2013-05-21 07:57:00,
2013-05-21 03:59:00,65.2,64.0,29.90,SW,224,0.0,1.0,96,0.00,,,0.00,VWS V14.01,2013-05-21 07:59:00,
2013-05-21 04:00:00,65.2,64.0,29.90,SW,224,0.0,1.0,96,0.00,,,0.00,VWS V14.01,2013-05-21 08:00:00,
2013-05-21 04:02:00,65.2,64.0,29.90,SW,224,0.0,1.0,96,0.00,,,0.00,VWS V14.01,2013-05-21 08:02:00,
2013-05-21 04:03:00,65.2,64.0,29.90,SW,224,0.0,1.0,96,0.00,,,0.00,VWS V14.01,2013-05-21 08:03:00,
2013-05-21 04:05:00,65.0,63.8,29.90,SW,224,0.0,0.0,96,0.00,,,0.00,VWS V14.01,2013-05-21 08:05:00,
2013-05-21 04:06:00,65.0,63.8,29.90,SW,224,3.0,3.0,96,0.00,,,0.00,VWS V14.01,2013-05-21 08:06:00,
2013-05-21 04:09:00,65.0,63.8,29.90,SW,224,0.0,3.0,96,0.00,,,0.00,VWS V14.01,2013-05-21 08:09:00,
2013-05-21 04:11:00,65.2,64.0,29.90,SW,224,0.0,3.0,96,0.00,,,0.00,VWS V14.01,2013-05-21 08:11:00,
2013-05-21 04:12:00,65.2,64.0,29.90,SW,224,0.0,3.0,96,0.00,,,0.00,VWS V14.01,2013-05-21 08:12:00,
2013-05-21 04:16:00,65.2,64.0,29.90,SW,224,0.0,3.0,96,0.00,,,0.00,VWS V14.01,2013-05-21 08:16:00,
2013-05-21 04:17:00,65.2,64.0,29.90,SW,224,0.0,3.0,96,0.00,,,0.00,VWS V14.01,2013-05-21 08:17:00,
2013-05-21 04:20:00,65.2,64.0,29.90,SW,224,0.0,3.0,96,0.00,,,0.00,VWS V14.01,2013-05-21 08:20:00,
2013-05-21 04:21:00,65.2,64.0,29.90,SW,224,0.0,3.0,96,0.00,,,0.00,VWS V14.01,2013-05-21 08:21:00,
2013-05-21 04:22:00,65.2,64.0,29.90,SW,224,0.0,3.0,96,0.00,,,0.00,VWS V14.01,2013-05-21 08:22:00,
2013-05-21 04:25:00,65.2,64.0,29.90,SW,224,0.0,3.0,96,0.00,,,0.00,VWS V14.01,2013-05-21 08:25:00,
2013-05-21 04:27:00,65.2,64.0,29.90,SW,224,0.0,3.0,96,0.00,,,0.00,VWS V14.01,2013-05-21 08:27:00,
2013-05-21 04:29:00,65.2,64.0,29.90,SW,224,0.0,3.0,96,0.00,,,0.00,VWS V14.01,2013-05-21 08:29:00,
2013-05-21 04:30:00,65.2,64.0,29.90,SW,224,0.0,4.0,96,0.00,,,0.00,VWS V14.01,2013-05-21 08:30:00,
2013-05-21 04:31:00,65.2,64.0,29.90,SW,224,0.0,3.0,96,0.00,,,0.00,VWS V14.01,2013-05-21 08:31:00,
2013-05-21 04:32:00,65.2,64.0,29.90,SW,224,4.0,4.0,96,0.00,,,0.00,VWS V14.01,2013-05-21 08:32:00,
2013-05-21 04:34:00,65.2,64.0,29.90,SW,224,0.0,4.0,96,0.00,,,0.00,VWS V14.01,2013-05-21 08:34:00,
2013-05-21 04:39:00,65.2,64.0,29.90,SW,224,2.0,6.0,96,0.00,,,0.00,VWS V14.01,2013-05-21 08:39:00,
2013-05-21 04:41:00,65.2,64.0,29.90,SW,224,4.0,6.0,96,0.00,,,0.00,VWS V14.01,2013-05-21 08:41:00,
2013-05-21 04:44:00,65.2,64.0,29.90,SW,224,0.0,6.0,96,0.00,,,0.00,VWS V14.01,2013-05-21 08:44:00,
2013-05-21 04:45:00,65.2,64.0,29.90,SW,225,3.0,6.0,96,0.00,,,0.00,VWS V14.01,2013-05-21 08:45:00,
2013-05-21 04:46:00,65.2,64.0,29.90,SW,224,0.0,6.0,96,0.00,,,0.00,VWS V14.01,2013-05-21 08:46:00,
2013-05-21 04:47:00,65.2,64.0,29.90,SW,224,0.0,6.0,96,0.00,,,0.00,VWS V14.01,2013-05-21 08:47:00,
2013-05-21 04:49:00,65.2,64.0,29.90,SW,224,2.0,6.0,96,0.00,,,0.00,VWS V14.01,2013-05-21 08:49:00,
2013-05-21 04:52:00,65.2,64.0,29.90,SW,224,0.0,6.0,96,0.00,,,0.00,VWS V14.01,2013-05-21 08:52:00,
2013-05-21 04:53:00,65.2,64.0,29.90,SW,224,0.0,6.0,96,0.00,,,0.00,VWS V14.01,2013-05-21 08:53:00,
2013-05-21 04:54:00,65.2,64.0,29.90,SW,224,0.0,6.0,96,0.00,,,0.00,VWS V14.01,2013-05-21 08:54:00,
2013-05-21 04:55:00,65.2,64.0,29.90,SW,224,0.0,6.0,96,0.00,,,0.00,VWS V14.01,2013-05-21 08:55:00,
2013-05-21 04:56:00,65.2,64.0,29.90,SW,224,0.0,6.0,96,0.00,,,0.00,VWS V14.01,2013-05-21 08:56:00,
2013-05-21 04:58:00,65.2,64.0,29.90,SW,224,4.0,6.0,96,0.00,,,0.00,VWS V14.01,2013-05-21 08:58:00,
2013-05-21 04:59:00,65.2,64.0,29.90,SW,224,0.0,6.0,96,0.00,,,0.00,VWS V14.01,2013-05-21 08:59:00,
2013-05-21 05:00:00,65.2,64.0,29.90,SW,224,0.0,6.0,96,0.00,,,0.00,VWS V14.01,2013-05-21 09:00:00,
2013-05-21 05:02:00,65.0,63.8,29.90,SW,224,6.0,6.0,96,0.00,,,0.00,VWS V14.01,2013-05-21 09:02:00,
2013-05-21 05:04:00,65.0,63.8,29.90,SW,224,0.0,2.0,96,0.00,,,0.00,VWS V14.01,2013-05-21 09:04:00,
2013-05-21 05:05:00,65.0,63.8,29.90,SW,224,3.0,5.0,96,0.00,,,0.00,VWS V14.01,2013-05-21 09:05:00,
2013-05-21 05:07:00,65.0,63.8,29.90,SW,225,2.0,7.0,96,0.00,,,0.00,VWS V14.01,2013-05-21 09:07:00,
2013-05-21 05:08:00,65.0,63.8,29.90,SW,224,2.0,7.0,96,0.00,,,0.00,VWS V14.01,2013-05-21 09:08:00,
2013-05-21 05:10:00,65.0,63.8,29.90,SW,224,2.0,7.0,96,0.00,,,0.00,VWS V14.01,2013-05-21 09:10:00,
2013-05-21 05:12:00,65.2,64.0,29.90,SW,224,0.0,7.0,96,0.00,,,0.00,VWS V14.01,2013-05-21 09:12:00,
2013-05-21 05:14:00,65.2,64.0,29.90,SW,224,4.0,7.0,96,0.00,,,0.00,VWS V14.01,2013-05-21 09:14:00,
2013-05-21 05:15:00,65.2,64.0,29.90,SW,224,0.0,7.0,96,0.00,,,0.00,VWS V14.01,2013-05-21 09:15:00,
2013-05-21 05:18:00,65.2,64.0,29.91,SW,224,3.0,7.0,96,0.00,,,0.00,VWS V14.01,2013-05-21 09:18:00,
2013-05-21 05:19:00,65.2,64.0,29.91,SW,224,1.0,7.0,96,0.00,,,0.00,VWS V14.01,2013-05-21 09:19:00,
2013-05-21 05:20:00,65.2,64.3,29.91,SW,224,3.0,7.0,97,0.00,,,0.00,VWS V14.01,2013-05-21 09:20:00,
2013-05-21 05:22:00,65.2,64.3,29.91,SW,224,4.0,7.0,97,0.00,,,0.00,VWS V14.01,2013-05-21 09:22:00,
2013-05-21 05:23:00,65.2,64.0,29.91,SW,224,3.0,7.0,96,0.00,,,0.00,VWS V14.01,2013-05-21 09:23:00,
2013-05-21 05:24:00,65.2,64.3,29.91,SW,224,4.0,7.0,97,0.00,,,0.00,VWS V14.01,2013-05-21 09:24:00,
2013-05-21 05:28:00,65.3,64.4,29.91,SW,224,0.0,7.0,97,0.00,,,0.00,VWS V14.01,2013-05-21 09:28:00,
2013-05-21 05:30:00,65.3,64.4,29.91,SW,224,0.0,7.0,97,0.00,,,0.00,VWS V14.01,2013-05-21 09:30:00,
2013-05-21 05:32:00,65.3,64.1,29.91,SW,224,0.0,7.0,96,0.00,,,0.00,VWS V14.01,2013-05-21 09:32:00,
2013-05-21 05:34:00,65.2,64.0,29.91,SW,224,0.0,9.0,96,0.00,,,0.00,VWS V14.01,2013-05-21 09:34:00,
2013-05-21 05:35:00,65.3,64.1,29.91,SW,224,0.0,0.0,96,0.00,,,0.00,VWS V14.01,2013-05-21 09:35:00,
2013-05-21 05:37:00,65.2,64.0,29.91,SW,227,4.0,7.0,96,0.00,,,0.00,VWS V14.01,2013-05-21 09:37:00,
2013-05-21 05:39:00,65.2,64.3,29.91,SW,227,6.0,7.0,97,0.00,,,0.00,VWS V14.01,2013-05-21 09:39:00,
2013-05-21 05:42:00,65.3,64.4,29.91,SW,227,0.0,7.0,97,0.00,,,0.00,VWS V14.01,2013-05-21 09:42:00,
2013-05-21 05:43:00,65.3,64.4,29.91,SW,227,0.0,7.0,97,0.00,,,0.00,VWS V14.01,2013-05-21 09:43:00,
2013-05-21 05:44:00,65.3,64.4,29.91,SW,227,0.0,7.0,97,0.00,,,0.00,VWS V14.01,2013-05-21 09:44:00,
2013-05-21 05:48:00,65.5,64.6,29.91,WSW,257,5.0,7.0,97,0.00,,,0.00,VWS V14.01,2013-05-21 09:48:00,
2013-05-21 05:49:00,65.5,64.6,29.91,WSW,257,3.0,7.0,97,0.00,,,0.00,VWS V14.01,2013-05-21 09:49:00,
2013-05-21 05:50:00,65.6,64.7,29.91,WSW,257,0.0,7.0,97,0.00,,,0.00,VWS V14.01,2013-05-21 09:50:00,
2013-05-21 05:51:00,65.6,64.7,29.91,WSW,257,0.0,7.0,97,0.00,,,0.00,VWS V14.01,2013-05-21 09:51:00,
2013-05-21 05:53:00,65.6,64.7,29.91,WSW,257,4.0,7.0,97,0.00,,,0.00,VWS V14.01,2013-05-21 09:53:00,
2013-05-21 05:55:00,65.6,64.7,29.91,WSW,257,4.0,7.0,97,0.00,,,0.00,VWS V14.01,2013-05-21 09:55:00,
2013-05-21 05:58:00,65.8,64.9,29.91,WSW,257,0.0,7.0,97,0.00,,,0.00,VWS V14.01,2013-05-21 09:58:00,
2013-05-21 05:59:00,65.8,64.9,29.91,WSW,257,5.0,7.0,97,0.00,,,0.00,VWS V14.01,2013-05-21 09:59:00,
2013-05-21 06:00:00,65.8,64.9,29.91,WSW,257,4.0,7.0,97,0.00,,,0.00,VWS V14.01,2013-05-21 10:00:00,
2013-05-21 06:01:00,65.8,64.9,29.91,WSW,256,4.0,7.0,97,0.00,,,0.00,VWS V14.01,2013-05-21 10:01:00,
2013-05-21 06:03:00,65.8,64.9,29.91,WSW,257,4.0,7.0,97,0.00,,,0.00,VWS V14.01,2013-05-21 10:03:00,
2013-05-21 06:04:00,65.8,64.9,29.92,WSW,257,0.0,7.0,97,0.00,,,0.00,VWS V14.01,2013-05-21 10:04:00,
2013-05-21 06:07:00,65.8,64.9,29.92,WSW,256,4.0,6.0,97,0.00,,,0.00,VWS V14.01,2013-05-21 10:07:00,
2013-05-21 06:09:00,66.0,65.1,29.92,WSW,256,3.0,6.0,97,0.00,,,0.00,VWS V14.01,2013-05-21 10:09:00,
2013-05-21 06:11:00,66.0,65.1,29.92,SW,236,7.0,8.0,97,0.00,,,0.00,VWS V14.01,2013-05-21 10:11:00,
2013-05-21 06:12:00,66.0,65.1,29.92,WSW,238,9.0,9.0,97,0.00,,,0.00,VWS V14.01,2013-05-21 10:12:00,
2013-05-21 06:14:00,66.0,65.1,29.92,SW,232,7.0,9.0,97,0.00,,,0.00,VWS V14.01,2013-05-21 10:14:00,
2013-05-21 06:16:00,66.0,65.1,29.92,SW,233,5.0,9.0,97,0.00,,,0.00,VWS V14.01,2013-05-21 10:16:00,
2013-05-21 06:19:00,66.0,65.1,29.93,SW,234,6.0,9.0,97,0.00,,,0.00,VWS V14.01,2013-05-21 10:19:00,
2013-05-21 06:23:00,66.0,65.1,29.93,SW,235,2.0,9.0,97,0.00,,,0.00,VWS V14.01,2013-05-21 10:23:00,
2013-05-21 06:24:00,66.0,65.1,29.93,SW,236,6.0,9.0,97,0.00,,,0.00,VWS V14.01,2013-05-21 10:24:00,
2013-05-21 06:26:00,66.0,65.1,29.93,SW,236,0.0,9.0,97,0.00,,,0.00,VWS V14.01,2013-05-21 10:26:00,
2013-05-21 06:27:00,66.1,65.2,29.93,SW,236,0.0,9.0,97,0.00,,,0.00,VWS V14.01,2013-05-21 10:27:00,
2013-05-21 06:28:00,66.1,65.2,29.93,SW,236,6.0,9.0,97,0.00,,,0.00,VWS V14.01,2013-05-21 10:28:00,
2013-05-21 06:29:00,66.1,65.2,29.93,WSW,244,5.0,9.0,97,0.00,,,0.00,VWS V14.01,2013-05-21 10:29:00,
2013-05-21 06:30:00,66.1,65.2,29.93,WSW,243,2.0,9.0,97,0.00,,,0.00,VWS V14.01,2013-05-21 10:30:00,
2013-05-21 06:31:00,66.1,65.2,29.93,WSW,243,3.0,9.0,97,0.00,,,0.00,VWS V14.01,2013-05-21 10:31:00,
2013-05-21 06:33:00,66.1,65.2,29.93,WSW,243,7.0,9.0,97,0.00,,,0.00,VWS V14.01,2013-05-21 10:33:00,
2013-05-21 06:35:00,66.1,65.2,29.93,WSW,243,3.0,3.0,97,0.00,,,0.00,VWS V14.01,2013-05-21 10:35:00,
2013-05-21 06:36:00,66.1,65.2,29.93,WSW,242,5.0,7.0,97,0.00,,,0.00,VWS V14.01,2013-05-21 10:36:00,
2013-05-21 06:38:00,66.1,65.2,29.93,WSW,242,5.0,7.0,97,0.00,,,0.00,VWS V14.01,2013-05-21 10:38:00,
2013-05-21 06:41:00,66.3,65.4,29.93,WSW,242,0.0,7.0,97,0.00,,,0.00,VWS V14.01,2013-05-21 10:41:00,
2013-05-21 06:43:00,66.3,65.4,29.93,WSW,257,7.0,9.0,97,0.00,,,0.00,VWS V14.01,2013-05-21 10:43:00,
2013-05-21 06:46:00,66.4,65.5,29.93,West,270,6.0,9.0,97,0.00,,,0.00,VWS V14.01,2013-05-21 10:46:00,
2013-05-21 06:48:00,66.4,65.5,29.93,West,271,0.0,9.0,97,0.00,,,0.00,VWS V14.01,2013-05-21 10:48:00,
2013-05-21 06:49:00,66.4,65.5,29.93,West,271,0.0,9.0,97,0.00,,,0.00,VWS V14.01,2013-05-21 10:49:00,
2013-05-21 06:52:00,66.8,65.9,29.93,West,269,2.0,9.0,97,0.00,,,0.00,VWS V14.01,2013-05-21 10:52:00,
2013-05-21 06:54:00,66.8,65.9,29.93,WSW,240,7.0,9.0,97,0.00,,,0.00,VWS V14.01,2013-05-21 10:54:00,
2013-05-21 06:55:00,66.8,65.9,29.93,WSW,245,7.0,9.0,97,0.00,,,0.00,VWS V14.01,2013-05-21 10:55:00,
2013-05-21 06:57:00,66.9,66.0,29.93,West,273,10.0,10.0,97,0.00,,,0.00,VWS V14.01,2013-05-21 10:57:00,
2013-05-21 07:00:00,67.1,66.2,29.93,West,263,5.0,11.0,97,0.00,,,0.00,VWS V14.01,2013-05-21 11:00:00,
2013-05-21 07:01:00,67.1,66.2,29.93,WSW,237,3.0,11.0,97,0.00,,,0.00,VWS V14.01,2013-05-21 11:01:00,
2013-05-21 07:02:00,67.1,66.2,29.93,WSW,257,3.0,11.0,97,0.00,,,0.00,VWS V14.01,2013-05-21 11:02:00,
2013-05-21 07:04:00,67.3,66.4,29.93,West,262,5.0,11.0,97,0.00,,,0.00,VWS V14.01,2013-05-21 11:04:00,
2013-05-21 07:09:00,67.3,66.4,29.93,West,265,8.0,12.0,97,0.00,,,0.00,VWS V14.01,2013-05-21 11:09:00,
2013-05-21 07:10:00,67.3,66.4,29.93,WSW,247,6.0,12.0,97,0.00,,,0.00,VWS V14.01,2013-05-21 11:10:00,
2013-05-21 07:11:00,67.3,66.4,29.93,WSW,249,6.0,12.0,97,0.00,,,0.00,VWS V14.01,2013-05-21 11:11:00,
2013-05-21 07:15:00,67.4,66.5,29.93,SW,225,0.0,12.0,97,0.00,,,0.00,VWS V14.01,2013-05-21 11:15:00,
2013-05-21 07:17:00,67.4,66.5,29.93,West,281,7.0,12.0,97,0.00,,,0.00,VWS V14.01,2013-05-21 11:17:00,
2013-05-21 07:19:00,67.4,66.5,29.93,WSW,257,6.0,12.0,97,0.00,,,0.00,VWS V14.01,2013-05-21 11:19:00,
2013-05-21 07:20:00,67.4,66.5,29.93,WNW,285,4.0,12.0,97,0.00,,,0.00,VWS V14.01,2013-05-21 11:20:00,
2013-05-21 07:21:00,67.4,66.5,29.93,West,272,7.0,12.0,97,0.00,,,0.00,VWS V14.01,2013-05-21 11:21:00,
2013-05-21 07:22:00,67.6,66.7,29.93,West,264,1.0,12.0,97,0.00,,,0.00,VWS V14.01,2013-05-21 11:22:00,
2013-05-21 07:26:00,67.6,66.7,29.93,West,271,4.0,12.0,97,0.00,,,0.00,VWS V14.01,2013-05-21 11:26:00,
2013-05-21 07:27:00,67.8,66.9,29.93,West,276,9.0,12.0,97,0.00,,,0.00,VWS V14.01,2013-05-21 11:27:00,
2013-05-21 07:28:00,67.8,66.9,29.93,West,272,2.0,12.0,97,0.00,,,0.00,VWS V14.01,2013-05-21 11:28:00,
2013-05-21 07:29:00,67.8,66.9,29.93,West,272,2.0,12.0,97,0.00,,,0.00,VWS V14.01,2013-05-21 11:29:00,
2013-05-21 07:30:00,67.9,67.0,29.93,West,263,6.0,12.0,97,0.00,,,0.00,VWS V14.01,2013-05-21 11:30:00,
2013-05-21 07:31:00,67.8,66.9,29.93,West,271,2.0,12.0,97,0.00,,,0.00,VWS V14.01,2013-05-21 11:31:00,
2013-05-21 07:33:00,67.9,67.0,29.93,West,270,0.0,12.0,97,0.00,,,0.00,VWS V14.01,2013-05-21 11:33:00,
2013-05-21 07:37:00,68.1,67.2,29.93,West,264,0.0,7.0,97,0.00,,,0.00,VWS V14.01,2013-05-21 11:37:00,
2013-05-21 07:38:00,68.3,67.4,29.93,West,279,7.0,10.0,97,0.00,,,0.00,VWS V14.01,2013-05-21 11:38:00,
2013-05-21 07:39:00,68.3,67.4,29.93,West,274,5.0,10.0,97,0.00,,,0.00,VWS V14.01,2013-05-21 11:39:00,
2013-05-21 07:44:00,68.4,67.5,29.93,West,274,5.0,10.0,97,0.00,,,0.00,VWS V14.01,2013-05-21 11:44:00,
2013-05-21 07:45:00,68.6,67.7,29.93,West,261,6.0,10.0,97,0.00,,,0.00,VWS V14.01,2013-05-21 11:45:00,
2013-05-21 07:47:00,68.6,67.7,29.93,West,276,11.0,12.0,97,0.00,,,0.00,VWS V14.01,2013-05-21 11:47:00,
2013-05-21 07:49:00,68.8,67.9,29.93,WSW,250,2.0,12.0,97,0.00,,,0.00,VWS V14.01,2013-05-21 11:49:00,
2013-05-21 07:54:00,69.1,68.2,29.93,West,271,6.0,12.0,97,0.00,,,0.00,VWS V14.01,2013-05-21 11:54:00,
2013-05-21 07:55:00,69.1,68.2,29.93,West,263,6.0,12.0,97,0.00,,,0.00,VWS V14.01,2013-05-21 11:55:00,
2013-05-21 07:56:00,69.3,68.4,29.93,WSW,248,2.0,12.0,97,0.00,,,0.00,VWS V14.01,2013-05-21 11:56:00,
2013-05-21 07:59:00,69.4,68.5,29.93,WSW,246,8.0,12.0,97,0.00,,,0.00,VWS V14.01,2013-05-21 11:59:00,
2013-05-21 08:00:00,69.4,68.5,29.93,WSW,243,4.0,12.0,97,0.00,,,0.00,VWS V14.01,2013-05-21 12:00:00,
2013-05-21 08:01:00,69.6,68.7,29.93,SW,220,6.0,12.0,97,0.00,,,0.00,VWS V14.01,2013-05-21 12:01:00,
2013-05-21 08:02:00,69.6,68.7,29.93,WSW,238,9.0,12.0,97,0.00,,,0.00,VWS V14.01,2013-05-21 12:02:00,
2013-05-21 08:04:00,69.8,68.9,29.93,WSW,237,5.0,12.0,97,0.00,,,0.00,VWS V14.01,2013-05-21 12:04:00,
2013-05-21 08:07:00,69.9,68.7,29.93,WSW,245,8.0,10.0,96,0.00,,,0.00,VWS V14.01,2013-05-21 12:07:00,
2013-05-21 08:08:00,69.9,68.7,29.93,SW,233,5.0,11.0,96,0.00,,,0.00,VWS V14.01,2013-05-21 12:08:00,
2013-05-21 08:09:00,70.1,68.9,29.93,WSW,250,0.0,11.0,96,0.00,,,0.00,VWS V14.01,2013-05-21 12:09:00,
2013-05-21 08:10:00,70.1,68.9,29.93,SW,227,6.0,11.0,96,0.00,,,0.00,VWS V14.01,2013-05-21 12:10:00,
2013-05-21 08:13:00,70.3,69.1,29.93,SW,226,8.0,11.0,96,0.00,,,0.00,VWS V14.01,2013-05-21 12:13:00,
2013-05-21 08:15:00,70.4,69.2,29.93,SW,232,0.0,11.0,96,0.00,,,0.00,VWS V14.01,2013-05-21 12:15:00,
2013-05-21 08:16:00,70.6,69.4,29.93,SW,234,6.0,11.0,96,0.00,,,0.00,VWS V14.01,2013-05-21 12:16:00,
2013-05-21 08:18:00,70.6,69.4,29.93,WSW,241,4.0,11.0,96,0.00,,,0.00,VWS V14.01,2013-05-21 12:18:00,
2013-05-21 08:20:00,70.6,69.1,29.92,SW,226,9.0,11.0,95,0.00,,,0.00,VWS V14.01,2013-05-21 12:20:00,
2013-05-21 08:21:00,70.6,69.1,29.92,West,272,5.0,11.0,95,0.00,,,0.00,VWS V14.01,2013-05-21 12:21:00,
2013-05-21 08:24:00,70.9,69.1,29.92,SW,231,7.0,11.0,94,0.00,,,0.00,VWS V14.01,2013-05-21 12:24:00,
2013-05-21 08:25:00,71.1,69.3,29.92,SW,232,4.0,11.0,94,0.00,,,0.00,VWS V14.01,2013-05-21 12:25:00,
2013-05-21 08:26:00,71.3,69.2,29.92,SW,225,7.0,11.0,93,0.00,,,0.00,VWS V14.01,2013-05-21 12:26:00,
2013-05-21 08:29:00,71.5,69.1,29.92,SW,235,7.0,11.0,92,0.00,,,0.00,VWS V14.01,2013-05-21 12:29:00,
2013-05-21 08:30:00,72.3,68.9,29.93,WSW,255,6.0,11.0,89,0.00,,,0.00,VWS V14.01,2013-05-21 12:30:00,
2013-05-21 08:33:00,72.3,69.2,29.92,WSW,244,3.0,11.0,90,0.00,,,0.00,VWS V14.01,2013-05-21 12:33:00,
2013-05-21 08:34:00,72.3,68.9,29.93,WSW,254,3.0,11.0,89,0.00,,,0.00,VWS V14.01,2013-05-21 12:34:00,
2013-05-21 08:35:00,72.5,68.8,29.93,West,263,6.0,7.0,88,0.00,,,0.00,VWS V14.01,2013-05-21 12:35:00,
2013-05-21 08:39:00,72.8,68.4,29.93,West,267,0.0,9.0,86,0.00,,,0.00,VWS V14.01,2013-05-21 12:39:00,
2013-05-21 08:40:00,73.0,68.9,29.93,West,267,0.0,9.0,87,0.00,,,0.00,VWS V14.01,2013-05-21 12:40:00,
2013-05-21 08:41:00,73.2,68.8,29.93,West,269,8.0,9.0,86,0.00,,,0.00,VWS V14.01,2013-05-21 12:41:00,
2013-05-21 08:43:00,73.3,68.2,29.93,WNW,290,6.0,10.0,84,0.00,,,0.00,VWS V14.01,2013-05-21 12:43:00,
2013-05-21 08:45:00,73.2,68.1,29.93,West,275,7.0,10.0,84,0.00,,,0.00,VWS V14.01,2013-05-21 12:45:00,
2013-05-21 08:46:00,73.3,68.2,29.93,West,269,3.0,10.0,84,0.00,,,0.00,VWS V14.01,2013-05-21 12:46:00,
2013-05-21 08:47:00,73.3,68.2,29.93,West,268,4.0,10.0,84,0.00,,,0.00,VWS V14.01,2013-05-21 12:47:00,
2013-05-21 08:48:00,73.5,68.0,29.93,SW,235,5.0,10.0,83,0.00,,,0.00,VWS V14.01,2013-05-21 12:48:00,
2013-05-21 08:50:00,73.7,68.2,29.93,West,264,10.0,10.0,83,0.00,,,0.00,VWS V14.01,2013-05-21 12:50:00,
2013-05-21 08:52:00,73.7,68.2,29.93,WSW,256,4.0,11.0,83,0.00,,,0.00,VWS V14.01,2013-05-21 12:52:00,
2013-05-21 08:53:00,73.9,68.4,29.93,WSW,254,0.0,11.0,83,0.00,,,0.00,VWS V14.01,2013-05-21 12:53:00,
2013-05-21 08:55:00,74.0,68.2,29.93,West,259,9.0,11.0,82,0.00,,,0.00,VWS V14.01,2013-05-21 12:55:00,
2013-05-21 08:56:00,74.0,68.2,29.93,WSW,258,2.0,11.0,82,0.00,,,0.00,VWS V14.01,2013-05-21 12:56:00,
2013-05-21 09:00:00,74.6,68.8,29.93,WSW,252,5.0,11.0,82,0.00,,,0.00,VWS V14.01,2013-05-21 13:00:00,
2013-05-21 09:01:00,74.7,68.5,29.93,WSW,239,7.0,11.0,81,0.00,,,0.00,VWS V14.01,2013-05-21 13:01:00,
2013-05-21 09:02:00,74.7,68.5,29.93,West,269,10.0,11.0,81,0.00,,,0.00,VWS V14.01,2013-05-21 13:02:00,
2013-05-21 09:04:00,74.7,68.1,29.93,WSW,246,4.0,13.0,80,0.00,,,0.00,VWS V14.01,2013-05-21 13:04:00,
2013-05-21 09:05:00,74.9,68.7,29.93,WSW,247,3.0,6.0,81,0.00,,,0.00,VWS V14.01,2013-05-21 13:05:00,
2013-05-21 09:08:00,75.1,68.9,29.93,West,259,6.0,11.0,81,0.00,,,0.00,VWS V14.01,2013-05-21 13:08:00,
2013-05-21 09:10:00,75.1,68.5,29.93,WSW,250,5.0,11.0,80,0.00,,,0.00,VWS V14.01,2013-05-21 13:10:00,
2013-05-21 09:11:00,75.1,68.2,29.93,West,268,7.0,11.0,79,0.00,,,0.00,VWS V14.01,2013-05-21 13:11:00,
2013-05-21 09:13:00,75.1,68.5,29.93,SW,234,10.0,11.0,80,0.00,,,0.00,VWS V14.01,2013-05-21 13:13:00,
2013-05-21 09:14:00,75.3,68.7,29.93,SW,228,6.0,11.0,80,0.00,,,0.00,VWS V14.01,2013-05-21 13:14:00,
2013-05-21 09:16:00,75.4,68.8,29.93,West,259,6.0,11.0,80,0.00,,,0.00,VWS V14.01,2013-05-21 13:16:00,
2013-05-21 09:17:00,75.4,68.8,29.93,West,260,4.0,11.0,80,0.00,,,0.00,VWS V14.01,2013-05-21 13:17:00,
2013-05-21 09:18:00,75.4,68.4,29.93,West,259,6.0,11.0,79,0.00,,,0.00,VWS V14.01,2013-05-21 13:18:00,
2013-05-21 09:21:00,76.0,69.0,29.93,WSW,240,10.0,11.0,79,0.00,,,0.00,VWS V14.01,2013-05-21 13:21:00,
2013-05-21 09:23:00,76.3,68.9,29.93,SW,225,9.0,11.0,78,0.00,,,0.00,VWS V14.01,2013-05-21 13:23:00,
2013-05-21 09:25:00,76.5,69.5,29.93,SW,223,6.0,11.0,79,0.00,,,0.00,VWS V14.01,2013-05-21 13:25:00,
2013-05-21 09:26:00,76.8,69.4,29.93,WSW,256,5.0,11.0,78,0.00,,,0.00,VWS V14.01,2013-05-21 13:26:00,
2013-05-21 09:27:00,77.0,69.2,29.93,WSW,241,6.0,11.0,77,0.00,,,0.00,VWS V14.01,2013-05-21 13:27:00,
2013-05-21 09:30:00,77.4,69.2,29.93,WSW,245,6.0,11.0,76,0.00,,,0.00,VWS V14.01,2013-05-21 13:30:00,
2013-05-21 09:31:00,77.2,69.1,29.93,WSW,243,5.0,11.0,76,0.00,,,0.00,VWS V14.01,2013-05-21 13:31:00,
2013-05-21 09:32:00,77.2,69.4,29.93,WSW,245,2.0,11.0,77,0.00,,,0.00,VWS V14.01,2013-05-21 13:32:00,
2013-05-21 09:35:00,77.4,69.2,29.93,WSW,242,7.0,9.0,76,0.00,,,0.00,VWS V14.01,2013-05-21 13:35:00,
2013-05-21 09:37:00,77.7,69.5,29.93,WSW,241,0.0,9.0,76,0.00,,,0.00,VWS V14.01,2013-05-21 13:37:00,
2013-05-21 09:39:00,77.7,69.2,29.93,SW,225,9.0,9.0,75,0.00,,,0.00,VWS V14.01,2013-05-21 13:39:00,
2013-05-21 09:40:00,77.7,69.2,29.93,SW,235,4.0,9.0,75,0.00,,,0.00,VWS V14.01,2013-05-21 13:40:00,
2013-05-21 09:42:00,77.9,68.9,29.93,SW,225,5.0,9.0,74,0.00,,,0.00,VWS V14.01,2013-05-21 13:42:00,
2013-05-21 09:45:00,78.1,69.5,29.93,SW,226,0.0,9.0,75,0.00,,,0.00,VWS V14.01,2013-05-21 13:45:00,
2013-05-21 09:48:00,78.6,69.2,29.93,SW,221,4.0,10.0,73,0.00,,,0.00,VWS V14.01,2013-05-21 13:48:00,
2013-05-21 09:49:00,78.6,68.8,29.93,SW,220,2.0,10.0,72,0.00,,,0.00,VWS V14.01,2013-05-21 13:49:00,
2013-05-21 09:50:00,78.6,68.8,29.93,SW,217,4.0,10.0,72,0.00,,,0.00,VWS V14.01,2013-05-21 13:50:00,
2013-05-21 09:51:00,78.6,69.2,29.93,SSW,206,9.0,10.0,73,0.00,,,0.00,VWS V14.01,2013-05-21 13:51:00,
2013-05-21 09:52:00,78.6,68.8,29.93,SSW,211,7.0,10.0,72,0.00,,,0.00,VWS V14.01,2013-05-21 13:52:00,
2013-05-21 09:55:00,78.6,68.8,29.93,SW,226,6.0,10.0,72,0.00,,,0.00,VWS V14.01,2013-05-21 13:55:00,
2013-05-21 09:56:00,78.6,68.8,29.93,SW,219,7.0,10.0,72,0.00,,,0.00,VWS V14.01,2013-05-21 13:56:00,
2013-05-21 09:57:00,78.6,69.2,29.93,SW,219,4.0,10.0,73,0.00,,,0.00,VWS V14.01,2013-05-21 13:57:00,
2013-05-21 10:00:00,79.0,69.2,29.92,SW,223,2.0,11.0,72,0.00,,,0.00,VWS V14.01,2013-05-21 14:00:00,
2013-05-21 10:01:00,78.8,69.0,29.93,SW,226,7.0,11.0,72,0.00,,,0.00,VWS V14.01,2013-05-21 14:01:00,
2013-05-21 10:03:00,78.8,69.8,29.92,SW,223,7.0,11.0,74,0.00,,,0.00,VWS V14.01,2013-05-21 14:03:00,
2013-05-21 10:04:00,79.0,69.2,29.92,SW,223,2.0,11.0,72,0.00,,,0.00,VWS V14.01,2013-05-21 14:04:00,
2013-05-21 10:06:00,79.2,69.4,29.92,WSW,238,6.0,9.0,72,0.00,,,0.00,VWS V14.01,2013-05-21 14:06:00,
2013-05-21 10:07:00,79.2,69.4,29.92,SW,225,9.0,10.0,72,0.00,,,0.00,VWS V14.01,2013-05-21 14:07:00,
2013-05-21 10:10:00,79.2,69.0,29.92,WSW,243,3.0,11.0,71,0.00,,,0.00,VWS V14.01,2013-05-21 14:10:00,
2013-05-21 10:12:00,79.2,69.4,29.92,WSW,243,0.0,11.0,72,0.00,,,0.00,VWS V14.01,2013-05-21 14:12:00,
2013-05-21 10:13:00,79.2,69.4,29.92,SW,223,9.0,11.0,72,0.00,,,0.00,VWS V14.01,2013-05-21 14:13:00,
2013-05-21 10:14:00,79.4,69.2,29.92,SW,232,2.0,11.0,71,0.00,,,0.00,VWS V14.01,2013-05-21 14:14:00,
2013-05-21 10:17:00,79.6,69.8,29.92,WSW,246,3.0,12.0,72,0.00,,,0.00,VWS V14.01,2013-05-21 14:17:00,
2013-05-21 10:20:00,79.8,69.2,29.92,WSW,246,8.0,13.0,70,0.00,,,0.00,VWS V14.01,2013-05-21 14:20:00,
2013-05-21 10:21:00,79.8,68.7,29.92,SW,224,6.0,13.0,69,0.00,,,0.00,VWS V14.01,2013-05-21 14:21:00,
2013-05-21 10:23:00,80.1,69.4,29.92,SW,230,6.0,13.0,70,0.00,,,0.00,VWS V14.01,2013-05-21 14:23:00,
2013-05-21 10:25:00,80.1,69.4,29.92,WSW,238,10.0,13.0,70,0.00,,,0.00,VWS V14.01,2013-05-21 14:25:00,
2013-05-21 10:26:00,80.3,69.2,29.92,SW,232,8.0,13.0,69,0.00,,,0.00,VWS V14.01,2013-05-21 14:26:00,
2013-05-21 10:27:00,80.3,69.2,29.92,SW,224,10.0,13.0,69,0.00,,,0.00,VWS V14.01,2013-05-21 14:27:00,
2013-05-21 10:28:00,80.1,69.0,29.92,SW,215,4.0,13.0,69,0.00,,,0.00,VWS V14.01,2013-05-21 14:28:00,
2013-05-21 10:30:00,80.5,69.4,29.91,SSW,209,11.0,13.0,69,0.00,,,0.00,VWS V14.01,2013-05-21 14:30:00,
2013-05-21 10:31:00,80.3,69.2,29.92,SW,225,6.0,13.0,69,0.00,,,0.00,VWS V14.01,2013-05-21 14:31:00,
2013-05-21 10:33:00,80.5,69.8,29.91,SW,217,5.0,13.0,70,0.00,,,0.00,VWS V14.01,2013-05-21 14:33:00,
2013-05-21 10:34:00,80.5,69.4,29.91,SSW,209,11.0,13.0,69,0.00,,,0.00,VWS V14.01,2013-05-21 14:34:00,
2013-05-21 10:35:00,80.5,69.4,29.91,SSW,197,5.0,11.0,69,0.00,,,0.00,VWS V14.01,2013-05-21 14:35:00,
2013-05-21 10:38:00,80.5,69.0,29.91,SSW,212,0.0,12.0,68,0.00,,,0.00,VWS V14.01,2013-05-21 14:38:00,
2013-05-21 10:40:00,80.9,69.8,29.91,SW,223,9.0,12.0,69,0.00,,,0.00,VWS V14.01,2013-05-21 14:40:00,
2013-05-21 10:41:00,80.9,69.4,29.91,SW,229,9.0,12.0,68,0.00,,,0.00,VWS V14.01,2013-05-21 14:41:00,
2013-05-21 10:44:00,81.1,69.6,29.91,WSW,240,1.0,12.0,68,0.00,,,0.00,VWS V14.01,2013-05-21 14:44:00,
2013-05-21 10:46:00,80.9,68.9,29.91,West,262,4.0,12.0,67,0.00,,,0.00,VWS V14.01,2013-05-21 14:46:00,
2013-05-21 10:48:00,80.9,68.9,29.91,West,259,10.0,12.0,67,0.00,,,0.00,VWS V14.01,2013-05-21 14:48:00,
2013-05-21 10:49:00,80.9,68.9,29.91,SW,236,9.0,12.0,67,0.00,,,0.00,VWS V14.01,2013-05-21 14:49:00,
2013-05-21 10:51:00,80.9,68.9,29.91,SW,236,6.0,12.0,67,0.00,,,0.00,VWS V14.01,2013-05-21 14:51:00,
2013-05-21 10:54:00,81.1,69.6,29.91,SW,222,9.0,12.0,68,0.00,,,0.00,VWS V14.01,2013-05-21 14:54:00,
2013-05-21 10:55:00,81.1,69.1,29.91,SW,236,10.0,12.0,67,0.00,,,0.00,VWS V14.01,2013-05-21 14:55:00,
2013-05-21 10:57:00,81.2,69.2,29.91,WSW,240,6.0,12.0,67,0.00,,,0.00,VWS V14.01,2013-05-21 14:57:00,
2013-05-21 10:59:00,81.2,68.8,29.91,SSW,208,2.0,12.0,66,0.00,,,0.00,VWS V14.01,2013-05-21 14:59:00,
2013-05-21 11:00:00,81.4,69.8,29.91,SSW,207,0.0,12.0,68,0.00,,,0.00,VWS V14.01,2013-05-21 15:00:00,
2013-05-21 11:01:00,81.2,69.6,29.91,SSW,210,4.0,12.0,68,0.00,,,0.00,VWS V14.01,2013-05-21 15:01:00,
2013-05-21 11:04:00,79.6,65.4,29.90,SSW,204,3.0,12.0,62,0.00,,,0.00,VWS V14.01,2013-05-21 15:04:00,
2013-05-21 11:05:00,78.8,65.6,29.90,SSE,159,6.0,8.0,64,0.00,,,0.00,VWS V14.01,2013-05-21 15:05:00,
2013-05-21 11:06:00,78.3,65.1,29.90,SSE,153,1.0,8.0,64,0.00,,,0.00,VWS V14.01,2013-05-21 15:06:00,
2013-05-21 11:08:00,77.6,65.3,29.90,SSE,153,0.0,8.0,66,0.00,,,0.00,VWS V14.01,2013-05-21 15:08:00,
2013-05-21 11:10:00,77.0,65.2,29.90,SSE,153,0.0,8.0,67,0.00,,,0.00,VWS V14.01,2013-05-21 15:10:00,
2013-05-21 11:15:00,76.7,65.3,29.90,SSE,153,0.0,8.0,68,0.00,,,0.00,VWS V14.01,2013-05-21 15:15:00,
2013-05-21 11:16:00,76.7,64.9,29.90,SSE,152,0.0,8.0,67,0.00,,,0.00,VWS V14.01,2013-05-21 15:16:00,
2013-05-21 11:19:00,77.4,66.4,29.90,SSE,153,0.0,8.0,69,0.00,,,0.00,VWS V14.01,2013-05-21 15:19:00,
2013-05-21 11:20:00,77.7,66.3,29.90,SSE,153,1.0,8.0,68,0.00,,,0.00,VWS V14.01,2013-05-21 15:20:00,
2013-05-21 11:21:00,77.7,65.4,29.90,SSE,153,4.0,8.0,66,0.00,,,0.00,VWS V14.01,2013-05-21 15:21:00,
2013-05-21 11:22:00,77.7,64.6,29.90,SSE,149,7.0,8.0,64,0.00,,,0.00,VWS V14.01,2013-05-21 15:22:00,
2013-05-21 11:26:00,76.8,64.6,29.90,SSE,148,2.0,9.0,66,0.00,,,0.00,VWS V14.01,2013-05-21 15:26:00,
2013-05-21 11:27:00,76.7,64.5,29.90,SE,146,6.0,9.0,66,0.00,,,0.00,VWS V14.01,2013-05-21 15:27:00,
2013-05-21 11:30:00,76.3,64.6,29.90,SSE,148,5.0,9.0,67,0.00,,,0.00,VWS V14.01,2013-05-21 15:30:00,
2013-05-21 11:31:00,76.1,63.9,29.90,SSE,149,4.0,9.0,66,0.00,,,0.00,VWS V14.01,2013-05-21 15:31:00,
2013-05-21 11:32:00,75.8,64.1,29.90,SSE,149,2.0,9.0,67,0.00,,,0.00,VWS V14.01,2013-05-21 15:32:00,
2013-05-21 11:34:00,75.6,64.7,29.90,SSE,150,4.0,9.0,69,0.00,,,0.00,VWS V14.01,2013-05-21 15:34:00,
2013-05-21 11:36:00,75.4,64.5,29.90,SSE,148,9.0,9.0,69,0.00,,,0.00,VWS V14.01,2013-05-21 15:36:00,
2013-05-21 11:37:00,75.3,64.4,29.90,SSE,150,5.0,9.0,69,0.00,,,0.00,VWS V14.01,2013-05-21 15:37:00,
2013-05-21 11:38:00,75.4,64.9,29.90,SSE,149,2.0,9.0,70,0.00,,,0.00,VWS V14.01,2013-05-21 15:38:00,
2013-05-21 11:39:00,75.4,64.9,29.90,SSE,149,6.0,9.0,70,0.00,,,0.00,VWS V14.01,2013-05-21 15:39:00,
2013-05-21 11:40:00,75.8,65.3,29.90,SSE,149,4.0,9.0,70,0.00,,,0.00,VWS V14.01,2013-05-21 15:40:00,
2013-05-21 11:43:00,76.3,65.0,29.90,SSE,149,7.0,9.0,68,0.00,,,0.00,VWS V14.01,2013-05-21 15:43:00,
2013-05-21 11:45:00,76.0,64.7,29.90,SSE,152,8.0,10.0,68,0.00,,,0.00,VWS V14.01,2013-05-21 15:45:00,
2013-05-21 11:48:00,75.8,65.7,29.90,SE,146,6.0,10.0,71,0.00,,,0.00,VWS V14.01,2013-05-21 15:48:00,
2013-05-21 11:49:00,76.0,65.9,29.90,SSW,196,6.0,11.0,71,0.00,,,0.00,VWS V14.01,2013-05-21 15:49:00,
2013-05-21 11:50:00,76.3,65.8,29.90,SSE,167,2.0,11.0,70,0.00,,,0.00,VWS V14.01,2013-05-21 15:50:00,
2013-05-21 11:51:00,76.3,66.2,29.90,South,173,8.0,11.0,71,0.00,,,0.00,VWS V14.01,2013-05-21 15:51:00,
2013-05-21 11:54:00,76.3,64.6,29.90,SSE,148,8.0,11.0,67,0.00,,,0.00,VWS V14.01,2013-05-21 15:54:00,
2013-05-21 11:55:00,76.1,64.4,29.90,SE,143,7.0,11.0,67,0.00,,,0.00,VWS V14.01,2013-05-21 15:55:00,
2013-05-21 11:56:00,76.0,64.7,29.90,SSW,205,10.0,11.0,68,0.00,,,0.00,VWS V14.01,2013-05-21 15:56:00,
2013-05-21 11:58:00,75.6,64.3,29.90,South,175,5.0,12.0,68,0.00,,,0.00,VWS V14.01,2013-05-21 15:58:00,
2013-05-21 12:00:00,75.1,64.2,29.90,SSE,163,8.0,12.0,69,0.00,,,0.00,VWS V14.01,2013-05-21 16:00:00,
2013-05-21 12:01:00,74.9,64.5,29.90,SSE,168,4.0,12.0,70,0.00,,,0.00,VWS V14.01,2013-05-21 16:01:00,
2013-05-21 12:02:00,74.7,64.3,29.90,SSE,165,5.0,12.0,70,0.00,,,0.00,VWS V14.01,2013-05-21 16:02:00,
2013-05-21 12:03:00,74.7,64.3,29.90,SSE,162,5.0,12.0,70,0.00,,,0.00,VWS V14.01,2013-05-21 16:03:00,
2013-05-21 12:06:00,74.7,64.3,29.90,SSE,167,5.0,10.0,70,0.00,,,0.00,VWS V14.01,2013-05-21 16:06:00,
2013-05-21 12:08:00,74.6,64.6,29.90,SSE,163,2.0,11.0,71,0.00,,,0.00,VWS V14.01,2013-05-21 16:08:00,
2013-05-21 12:09:00,74.6,64.6,29.90,South,171,5.0,11.0,71,0.00,,,0.00,VWS V14.01,2013-05-21 16:09:00,
2013-05-21 12:12:00,74.6,64.6,29.90,SSE,163,5.0,12.0,71,0.00,,,0.00,VWS V14.01,2013-05-21 16:12:00,
2013-05-21 12:14:00,74.9,65.3,29.90,South,185,12.0,12.0,72,0.00,,,0.00,VWS V14.01,2013-05-21 16:14:00,
2013-05-21 12:15:00,74.9,64.9,29.90,SSE,168,6.0,14.0,71,0.00,,,0.00,VWS V14.01,2013-05-21 16:15:00,
2013-05-21 12:16:00,75.1,65.1,29.90,South,177,7.0,14.0,71,0.00,,,0.00,VWS V14.01,2013-05-21 16:16:00,
2013-05-21 12:17:00,75.1,65.1,29.90,SSE,163,7.0,14.0,71,0.00,,,0.00,VWS V14.01,2013-05-21 16:17:00,
2013-05-21 12:19:00,74.9,64.9,29.90,SSE,157,5.0,16.0,71,0.00,,,0.00,VWS V14.01,2013-05-21 16:19:00,
2013-05-21 12:20:00,74.9,64.9,29.90,South,182,8.0,16.0,71,0.00,,,0.00,VWS V14.01,2013-05-21 16:20:00,
2013-05-21 12:22:00,74.9,64.9,29.90,SE,144,8.0,16.0,71,0.00,,,0.00,VWS V14.01,2013-05-21 16:22:00,
2013-05-21 12:24:00,74.9,64.9,29.90,SSE,150,6.0,16.0,71,0.00,,,0.00,VWS V14.01,2013-05-21 16:24:00,
2013-05-21 12:25:00,74.9,64.9,29.90,South,176,6.0,16.0,71,0.00,,,0.00,VWS V14.01,2013-05-21 16:25:00,
2013-05-21 12:28:00,74.6,64.2,29.90,South,173,8.0,16.0,70,0.00,,,0.00,VWS V14.01,2013-05-21 16:28:00,
2013-05-21 12:29:00,74.4,64.8,29.90,SE,135,6.0,16.0,72,0.00,,,0.00,VWS V14.01,2013-05-21 16:29:00,
2013-05-21 12:30:00,74.2,65.0,29.89,South,176,4.0,16.0,73,0.00,,,0.00,VWS V14.01,2013-05-21 16:30:00,
2013-05-21 12:31:00,74.0,64.4,29.90,SSE,148,9.0,16.0,72,0.00,,,0.00,VWS V14.01,2013-05-21 16:31:00,
2013-05-21 12:34:00,74.2,65.0,29.89,South,187,6.0,16.0,73,0.00,,,0.00,VWS V14.01,2013-05-21 16:34:00,
2013-05-21 12:35:00,74.2,64.6,29.89,SSE,159,6.0,7.0,72,0.00,,,0.00,VWS V14.01,2013-05-21 16:35:00,
2013-05-21 12:37:00,74.6,65.4,29.89,SSE,155,7.0,11.0,73,0.00,,,0.00,VWS V14.01,2013-05-21 16:37:00,
2013-05-21 12:40:00,74.6,65.0,29.89,South,190,11.0,12.0,72,0.00,,,0.00,VWS V14.01,2013-05-21 16:40:00,
2013-05-21 12:41:00,74.6,65.4,29.89,South,190,7.0,12.0,73,0.00,,,0.00,VWS V14.01,2013-05-21 16:41:00,
2013-05-21 12:42:00,74.7,65.1,29.89,SSW,193,13.0,13.0,72,0.00,,,0.00,VWS V14.01,2013-05-21 16:42:00,
2013-05-21 12:45:00,74.6,65.0,29.89,South,178,5.0,15.0,72,0.00,,,0.00,VWS V14.01,2013-05-21 16:45:00,
2013-05-21 12:47:00,74.7,65.5,29.89,SSW,207,13.0,15.0,73,0.00,,,0.00,VWS V14.01,2013-05-21 16:47:00,
2013-05-21 12:48:00,74.7,65.5,29.89,South,188,13.0,17.0,73,0.00,,,0.00,VWS V14.01,2013-05-21 16:48:00,
2013-05-21 12:49:00,74.7,65.5,29.89,SSW,200,7.0,17.0,73,0.00,,,0.00,VWS V14.01,2013-05-21 16:49:00,
2013-05-21 12:53:00,74.7,65.1,29.89,SSE,168,6.0,17.0,72,0.00,,,0.00,VWS V14.01,2013-05-21 16:53:00,
2013-05-21 12:55:00,74.6,64.6,29.89,SSW,198,11.0,17.0,71,0.00,,,0.00,VWS V14.01,2013-05-21 16:55:00,
2013-05-21 12:56:00,74.4,64.8,29.89,South,187,9.0,17.0,72,0.00,,,0.00,VWS V14.01,2013-05-21 16:56:00,
2013-05-21 12:59:00,73.5,63.1,29.89,South,174,6.0,17.0,70,0.00,,,0.00,VWS V14.01,2013-05-21 16:59:00,
2013-05-21 13:00:00,73.9,64.7,29.89,SE,141,11.0,17.0,73,0.00,,,0.00,VWS V14.01,2013-05-21 17:00:00,
2013-05-21 13:01:00,73.5,63.9,29.89,SSE,156,6.0,17.0,72,0.00,,,0.00,VWS V14.01,2013-05-21 17:01:00,
2013-05-21 13:04:00,73.7,64.5,29.89,South,178,9.0,17.0,73,0.00,,,0.00,VWS V14.01,2013-05-21 17:04:00,
2013-05-21 13:07:00,73.9,64.7,29.89,South,171,16.0,17.0,73,0.00,,,0.00,VWS V14.01,2013-05-21 17:07:00,
2013-05-21 13:08:00,73.9,64.3,29.89,SSE,157,7.0,17.0,72,0.00,,,0.00,VWS V14.01,2013-05-21 17:08:00,
2013-05-21 13:09:00,73.9,64.7,29.89,SSE,165,8.0,17.0,73,0.00,,,0.00,VWS V14.01,2013-05-21 17:09:00,
2013-05-21 13:11:00,73.5,63.9,29.89,SSW,207,15.0,17.0,72,0.00,,,0.00,VWS V14.01,2013-05-21 17:11:00,
2013-05-21 13:12:00,73.3,63.7,29.89,SSE,163,5.0,17.0,72,0.00,,,0.00,VWS V14.01,2013-05-21 17:12:00,
2013-05-21 13:15:00,73.2,64.4,29.89,South,169,4.0,17.0,74,0.00,,,0.00,VWS V14.01,2013-05-21 17:15:00,
2013-05-21 13:16:00,73.2,64.4,29.89,South,169,16.0,17.0,74,0.00,,,0.00,VWS V14.01,2013-05-21 17:16:00,
2013-05-21 13:17:00,73.2,64.0,29.89,SSE,161,6.0,17.0,73,0.00,,,0.00,VWS V14.01,2013-05-21 17:17:00,
2013-05-21 13:21:00,73.5,64.3,29.88,SW,232,8.0,17.0,73,0.00,,,0.00,VWS V14.01,2013-05-21 17:21:00,
2013-05-21 13:22:00,73.7,64.9,29.88,South,182,7.0,20.0,74,0.00,,,0.00,VWS V14.01,2013-05-21 17:22:00,
2013-05-21 13:23:00,73.7,64.5,29.88,SSW,199,13.0,20.0,73,0.00,,,0.00,VWS V14.01,2013-05-21 17:23:00,
2013-05-21 13:26:00,73.9,64.7,29.88,South,187,5.0,20.0,73,0.00,,,0.00,VWS V14.01,2013-05-21 17:26:00,
2013-05-21 13:27:00,74.0,64.8,29.88,South,181,4.0,20.0,73,0.00,,,0.00,VWS V14.01,2013-05-21 17:27:00,
2013-05-21 13:29:00,74.2,65.0,29.88,South,178,10.0,20.0,73,0.00,,,0.00,VWS V14.01,2013-05-21 17:29:00,
2013-05-21 13:30:00,73.9,64.3,29.88,SSE,160,8.0,20.0,72,0.00,,,0.00,VWS V14.01,2013-05-21 17:30:00,
2013-05-21 13:31:00,74.2,64.6,29.88,SE,144,9.0,20.0,72,0.00,,,0.00,VWS V14.01,2013-05-21 17:31:00,
2013-05-21 13:33:00,74.0,64.0,29.88,SE,146,7.0,20.0,71,0.00,,,0.00,VWS V14.01,2013-05-21 17:33:00,
2013-05-21 13:34:00,73.9,63.9,29.88,South,174,5.0,20.0,71,0.00,,,0.00,VWS V14.01,2013-05-21 17:34:00,
2013-05-21 13:35:00,73.9,64.3,29.88,SSE,157,7.0,15.0,72,0.00,,,0.00,VWS V14.01,2013-05-21 17:35:00,
2013-05-21 13:37:00,73.7,64.1,29.88,SSE,148,9.0,15.0,72,0.00,,,0.00,VWS V14.01,2013-05-21 17:37:00,
2013-05-21 13:39:00,73.9,64.3,29.88,SSE,165,10.0,16.0,72,0.00,,,0.00,VWS V14.01,2013-05-21 17:39:00,
2013-05-21 13:40:00,73.9,64.3,29.88,SSE,156,5.0,16.0,72,0.00,,,0.00,VWS V14.01,2013-05-21 17:40:00,
2013-05-21 13:41:00,73.7,64.1,29.88,SSW,202,8.0,16.0,72,0.00,,,0.00,VWS V14.01,2013-05-21 17:41:00,
2013-05-21 13:44:00,73.7,64.1,29.88,South,173,12.0,16.0,72,0.00,,,0.00,VWS V14.01,2013-05-21 17:44:00,
2013-05-21 13:45:00,73.5,63.9,29.88,SSE,166,6.0,16.0,72,0.00,,,0.00,VWS V14.01,2013-05-21 17:45:00,
2013-05-21 13:46:00,73.5,63.9,29.88,SSE,167,6.0,16.0,72,0.00,,,0.00,VWS V14.01,2013-05-21 17:46:00,
2013-05-21 13:49:00,73.7,64.5,29.87,SE,135,8.0,17.0,73,0.00,,,0.00,VWS V14.01,2013-05-21 17:49:00,
2013-05-21 13:51:00,74.0,64.8,29.87,SSE,157,10.0,17.0,73,0.00,,,0.00,VWS V14.01,2013-05-21 17:51:00,
2013-05-21 13:52:00,74.0,64.4,29.87,SSW,194,3.0,17.0,72,0.00,,,0.00,VWS V14.01,2013-05-21 17:52:00,
2013-05-21 13:54:00,74.2,64.6,29.87,South,171,14.0,17.0,72,0.00,,,0.00,VWS V14.01,2013-05-21 17:54:00,
2013-05-21 13:55:00,74.2,64.2,29.87,SSW,194,8.0,17.0,71,0.00,,,0.00,VWS V14.01,2013-05-21 17:55:00,
2013-05-21 13:57:00,74.0,64.0,29.87,SSW,195,10.0,17.0,71,0.00,,,0.00,VWS V14.01,2013-05-21 17:57:00,
2013-05-21 13:58:00,74.0,64.4,29.87,South,185,9.0,19.0,72,0.00,,,0.00,VWS V14.01,2013-05-21 17:58:00,
2013-05-21 14:00:00,74.2,64.6,29.87,SSW,198,8.0,19.0,72,0.00,,,0.00,VWS V14.01,2013-05-21 18:00:00,
2013-05-21 14:01:00,74.2,64.6,29.87,SSW,196,10.0,19.0,72,0.00,,,0.00,VWS V14.01,2013-05-21 18:01:00,
2013-05-21 14:03:00,74.6,65.0,29.87,SSE,150,6.0,19.0,72,0.00,,,0.00,VWS V14.01,2013-05-21 18:03:00,
2013-05-21 14:04:00,74.6,65.0,29.87,South,186,6.0,19.0,72,0.00,,,0.00,VWS V14.01,2013-05-21 18:04:00,
2013-05-21 14:05:00,74.6,65.0,29.87,SSW,204,10.0,15.0,72,0.00,,,0.00,VWS V14.01,2013-05-21 18:05:00,
2013-05-21 14:10:00,75.3,65.3,29.87,SSW,194,18.0,18.0,71,0.00,,,0.00,VWS V14.01,2013-05-21 18:10:00,
2013-05-21 14:11:00,75.3,64.8,29.87,SW,216,11.0,18.0,70,0.00,,,0.00,VWS V14.01,2013-05-21 18:11:00,
2013-05-21 14:12:00,75.3,64.8,29.87,SSW,196,13.0,18.0,70,0.00,,,0.00,VWS V14.01,2013-05-21 18:12:00,
2013-05-21 14:13:00,75.3,65.3,29.87,SSW,202,10.0,18.0,71,0.00,,,0.00,VWS V14.01,2013-05-21 18:13:00,
2013-05-21 14:14:00,75.4,65.3,29.87,South,182,15.0,18.0,71,0.00,,,0.00,VWS V14.01,2013-05-21 18:14:00,
2013-05-21 14:18:00,75.3,65.3,29.87,South,175,6.0,18.0,71,0.00,,,0.00,VWS V14.01,2013-05-21 18:18:00,
2013-05-21 14:19:00,75.3,65.3,29.87,South,186,5.0,18.0,71,0.00,,,0.00,VWS V14.01,2013-05-21 18:19:00,
2013-05-21 14:20:00,75.3,65.3,29.87,SW,217,7.0,18.0,71,0.00,,,0.00,VWS V14.01,2013-05-21 18:20:00,
2013-05-21 14:24:00,75.1,65.1,29.87,SSE,147,4.0,18.0,71,0.00,,,0.00,VWS V14.01,2013-05-21 18:24:00,
2013-05-21 14:26:00,75.1,65.1,29.87,SE,142,8.0,18.0,71,0.00,,,0.00,VWS V14.01,2013-05-21 18:26:00,
2013-05-21 14:28:00,75.1,65.1,29.87,South,180,9.0,18.0,71,0.00,,,0.00,VWS V14.01,2013-05-21 18:28:00,
2013-05-21 14:29:00,75.1,65.1,29.87,South,183,10.0,18.0,71,0.00,,,0.00,VWS V14.01,2013-05-21 18:29:00,
2013-05-21 14:30:00,75.1,64.7,29.87,SE,146,6.0,18.0,70,0.00,,,0.00,VWS V14.01,2013-05-21 18:30:00,
2013-05-21 14:34:00,74.9,64.9,29.87,SSE,168,0.0,18.0,71,0.00,,,0.00,VWS V14.01,2013-05-21 18:34:00,
2013-05-21 14:35:00,74.7,64.3,29.87,South,181,7.0,11.0,70,0.00,,,0.00,VWS V14.01,2013-05-21 18:35:00,
2013-05-21 14:38:00,74.7,64.7,29.87,South,176,6.0,13.0,71,0.00,,,0.00,VWS V14.01,2013-05-21 18:38:00,
2013-05-21 14:40:00,74.7,64.7,29.87,SSW,192,7.0,13.0,71,0.00,,,0.00,VWS V14.01,2013-05-21 18:40:00,
2013-05-21 14:41:00,74.9,64.9,29.87,SSW,194,9.0,13.0,71,0.00,,,0.00,VWS V14.01,2013-05-21 18:41:00,
2013-05-21 14:43:00,75.1,65.5,29.87,SSE,168,9.0,17.0,72,0.00,,,0.00,VWS V14.01,2013-05-21 18:43:00,
2013-05-21 14:44:00,75.1,65.1,29.87,South,186,14.0,17.0,71,0.00,,,0.00,VWS V14.01,2013-05-21 18:44:00,
2013-05-21 14:48:00,75.3,64.4,29.87,South,188,6.0,17.0,69,0.00,,,0.00,VWS V14.01,2013-05-21 18:48:00,
2013-05-21 14:49:00,75.3,64.4,29.87,South,183,12.0,17.0,69,0.00,,,0.00,VWS V14.01,2013-05-21 18:49:00,
2013-05-21 14:50:00,75.1,64.2,29.87,SSW,194,11.0,17.0,69,0.00,,,0.00,VWS V14.01,2013-05-21 18:50:00,
2013-05-21 14:52:00,75.1,64.7,29.87,SSE,157,7.0,17.0,70,0.00,,,0.00,VWS V14.01,2013-05-21 18:52:00,
2013-05-21 14:54:00,75.3,64.4,29.87,SSW,194,5.0,17.0,69,0.00,,,0.00,VWS V14.01,2013-05-21 18:54:00,
2013-05-21 14:55:00,75.1,64.2,29.87,South,170,7.0,17.0,69,0.00,,,0.00,VWS V14.01,2013-05-21 18:55:00,
2013-05-21 14:56:00,75.3,64.4,29.87,South,190,7.0,17.0,69,0.00,,,0.00,VWS V14.01,2013-05-21 18:56:00,
2013-05-21 14:57:00,75.1,64.2,29.87,SSE,159,9.0,17.0,69,0.00,,,0.00,VWS V14.01,2013-05-21 18:57:00,
2013-05-21 14:59:00,75.1,64.2,29.87,SSW,196,6.0,17.0,69,0.00,,,0.00,VWS V14.01,2013-05-21 18:59:00,
2013-05-21 15:00:00,74.9,64.1,29.86,South,180,7.0,17.0,69,0.00,,,0.00,VWS V14.01,2013-05-21 19:00:00,
2013-05-21 15:02:00,74.9,64.1,29.87,South,188,3.0,17.0,69,0.00,,,0.00,VWS V14.01,2013-05-21 19:02:00,
2013-05-21 15:04:00,74.9,64.1,29.86,South,182,6.0,17.0,69,0.00,,,0.00,VWS V14.01,2013-05-21 19:04:00,
2013-05-21 15:07:00,74.7,63.9,29.86,SSW,194,12.0,14.0,69,0.00,,,0.00,VWS V14.01,2013-05-21 19:07:00,
2013-05-21 15:10:00,74.4,63.6,29.86,SSE,159,10.0,15.0,69,0.00,,,0.00,VWS V14.01,2013-05-21 19:10:00,
2013-05-21 15:12:00,74.2,63.4,29.86,South,190,12.0,20.0,69,0.00,,,0.00,VWS V14.01,2013-05-21 19:12:00,
2013-05-21 15:13:00,74.0,63.2,29.86,SSE,153,6.0,20.0,69,0.00,,,0.00,VWS V14.01,2013-05-21 19:13:00,
2013-05-21 15:14:00,74.0,63.2,29.86,South,178,7.0,20.0,69,0.00,,,0.00,VWS V14.01,2013-05-21 19:14:00,
2013-05-21 15:18:00,73.9,63.9,29.85,South,173,2.0,20.0,71,0.00,,,0.00,VWS V14.01,2013-05-21 19:18:00,
2013-05-21 15:19:00,73.9,63.5,29.85,South,175,7.0,20.0,70,0.00,,,0.00,VWS V14.01,2013-05-21 19:19:00,
2013-05-21 15:20:00,73.9,63.9,29.85,South,182,8.0,20.0,71,0.00,,,0.00,VWS V14.01,2013-05-21 19:20:00,
2013-05-21 15:22:00,73.9,63.9,29.85,South,186,7.0,20.0,71,0.00,,,0.00,VWS V14.01,2013-05-21 19:22:00,
2013-05-21 15:23:00,73.9,63.5,29.85,South,188,6.0,20.0,70,0.00,,,0.00,VWS V14.01,2013-05-21 19:23:00,
2013-05-21 15:24:00,73.9,63.9,29.85,South,184,4.0,20.0,71,0.00,,,0.00,VWS V14.01,2013-05-21 19:24:00,
2013-05-21 15:27:00,73.9,63.9,29.85,South,184,4.0,20.0,71,0.00,,,0.00,VWS V14.01,2013-05-21 19:27:00,
2013-05-21 15:29:00,73.9,63.9,29.85,SSE,167,4.0,20.0,71,0.00,,,0.00,VWS V14.01,2013-05-21 19:29:00,
2013-05-21 15:30:00,74.0,64.0,29.85,South,186,6.0,20.0,71,0.00,,,0.00,VWS V14.01,2013-05-21 19:30:00,
2013-05-21 15:31:00,74.0,64.0,29.85,South,186,12.0,20.0,71,0.00,,,0.00,VWS V14.01,2013-05-21 19:31:00,
2013-05-21 15:34:00,74.0,64.0,29.85,South,186,3.0,6.0,71,0.00,,,0.00,VWS V14.01,2013-05-21 19:34:00,
2013-05-21 15:35:00,74.0,64.0,29.85,SSE,168,7.0,16.0,71,0.00,,,0.00,VWS V14.01,2013-05-21 19:35:00,
2013-05-21 15:37:00,73.9,63.9,29.85,SSE,168,5.0,16.0,71,0.00,,,0.00,VWS V14.01,2013-05-21 19:37:00,
2013-05-21 15:41:00,73.9,64.3,29.85,SSW,198,5.0,17.0,72,0.00,,,0.00,VWS V14.01,2013-05-21 19:41:00,
2013-05-21 15:42:00,73.9,64.3,29.85,SSE,165,7.0,17.0,72,0.00,,,0.00,VWS V14.01,2013-05-21 19:42:00,
2013-05-21 15:45:00,73.9,64.3,29.85,SSW,199,4.0,17.0,72,0.00,,,0.00,VWS V14.01,2013-05-21 19:45:00,
2013-05-21 15:46:00,73.9,64.3,29.85,SSW,202,5.0,17.0,72,0.00,,,0.00,VWS V14.01,2013-05-21 19:46:00,
2013-05-21 15:47:00,73.9,64.3,29.85,SSE,165,10.0,17.0,72,0.00,,,0.00,VWS V14.01,2013-05-21 19:47:00,
2013-05-21 15:50:00,74.0,64.4,29.85,SSW,197,12.0,17.0,72,0.00,,,0.00,VWS V14.01,2013-05-21 19:50:00,
2013-05-21 15:51:00,74.0,64.4,29.85,SSW,194,12.0,17.0,72,0.00,,,0.00,VWS V14.01,2013-05-21 19:51:00,
2013-05-21 15:54:00,73.9,64.3,29.85,SSW,194,9.0,17.0,72,0.00,,,0.00,VWS V14.01,2013-05-21 19:54:00,
2013-05-21 15:55:00,73.9,64.3,29.85,SSE,168,5.0,17.0,72,0.00,,,0.00,VWS V14.01,2013-05-21 19:55:00,
2013-05-21 15:59:00,73.9,63.9,29.85,SSE,165,5.0,17.0,71,0.00,,,0.00,VWS V14.01,2013-05-21 19:59:00,
2013-05-21 16:00:00,73.9,63.9,29.85,South,188,5.0,17.0,71,0.00,,,0.00,VWS V14.01,2013-05-21 20:00:00,
2013-05-21 16:04:00,73.9,63.9,29.84,South,175,10.0,17.0,71,0.00,,,0.00,VWS V14.01,2013-05-21 20:04:00,
2013-05-21 16:05:00,73.9,63.9,29.84,South,173,6.0,11.0,71,0.00,,,0.00,VWS V14.01,2013-05-21 20:05:00,
2013-05-21 16:06:00,73.9,63.9,29.84,SSW,206,11.0,12.0,71,0.00,,,0.00,VWS V14.01,2013-05-21 20:06:00,
2013-05-21 16:08:00,73.9,63.9,29.84,South,180,7.0,13.0,71,0.00,,,0.00,VWS V14.01,2013-05-21 20:08:00,
2013-05-21 16:09:00,73.9,63.9,29.84,South,184,5.0,13.0,71,0.00,,,0.00,VWS V14.01,2013-05-21 20:09:00,
2013-05-21 16:11:00,74.0,64.0,29.84,South,176,8.0,13.0,71,0.00,,,0.00,VWS V14.01,2013-05-21 20:11:00,
2013-05-21 16:12:00,74.2,64.2,29.84,SSE,159,8.0,13.0,71,0.00,,,0.00,VWS V14.01,2013-05-21 20:12:00,
2013-05-21 16:16:00,74.2,63.4,29.84,SSE,151,4.0,14.0,69,0.00,,,0.00,VWS V14.01,2013-05-21 20:16:00,
2013-05-21 16:18:00,74.2,63.4,29.84,South,171,8.0,14.0,69,0.00,,,0.00,VWS V14.01,2013-05-21 20:18:00,
2013-05-21 16:20:00,74.2,63.8,29.84,SSE,147,6.0,14.0,70,0.00,,,0.00,VWS V14.01,2013-05-21 20:20:00,
2013-05-21 16:22:00,74.4,64.0,29.84,SSW,192,3.0,14.0,70,0.00,,,0.00,VWS V14.01,2013-05-21 20:22:00,
2013-05-21 16:24:00,74.6,64.2,29.84,SSW,198,8.0,14.0,70,0.00,,,0.00,VWS V14.01,2013-05-21 20:24:00,
2013-05-21 16:26:00,74.7,64.3,29.84,South,189,12.0,14.0,70,0.00,,,0.00,VWS V14.01,2013-05-21 20:26:00,
2013-05-21 16:28:00,74.9,64.5,29.84,SSW,192,5.0,14.0,70,0.00,,,0.00,VWS V14.01,2013-05-21 20:28:00,
2013-05-21 16:29:00,75.1,64.2,29.84,SSW,196,8.0,14.0,69,0.00,,,0.00,VWS V14.01,2013-05-21 20:29:00,
2013-05-21 16:30:00,75.1,64.2,29.84,South,173,5.0,14.0,69,0.00,,,0.00,VWS V14.01,2013-05-21 20:30:00,
2013-05-21 16:31:00,75.3,64.4,29.84,South,173,4.0,14.0,69,0.00,,,0.00,VWS V14.01,2013-05-21 20:31:00,
2013-05-21 16:33:00,75.4,64.5,29.84,South,184,6.0,14.0,69,0.00,,,0.00,VWS V14.01,2013-05-21 20:33:00,
2013-05-21 16:36:00,75.3,63.6,29.84,SSE,147,8.0,13.0,67,0.00,,,0.00,VWS V14.01,2013-05-21 20:36:00,
2013-05-21 16:37:00,75.1,63.4,29.84,South,175,5.0,13.0,67,0.00,,,0.00,VWS V14.01,2013-05-21 20:37:00,
2013-05-21 16:38:00,75.1,63.8,29.84,South,175,1.0,13.0,68,0.00,,,0.00,VWS V14.01,2013-05-21 20:38:00,
2013-05-21 16:41:00,74.7,63.5,29.84,SSE,156,5.0,13.0,68,0.00,,,0.00,VWS V14.01,2013-05-21 20:41:00,
2013-05-21 16:42:00,74.7,63.5,29.84,SSE,154,2.0,13.0,68,0.00,,,0.00,VWS V14.01,2013-05-21 20:42:00,
2013-05-21 16:43:00,74.7,63.5,29.84,South,185,8.0,13.0,68,0.00,,,0.00,VWS V14.01,2013-05-21 20:43:00,
2013-05-21 16:44:00,74.6,63.3,29.84,South,188,5.0,13.0,68,0.00,,,0.00,VWS V14.01,2013-05-21 20:44:00,
2013-05-21 16:46:00,74.6,63.8,29.84,SSE,160,6.0,13.0,69,0.00,,,0.00,VWS V14.01,2013-05-21 20:46:00,
2013-05-21 16:48:00,74.4,63.6,29.83,South,169,7.0,13.0,69,0.00,,,0.00,VWS V14.01,2013-05-21 20:48:00,
2013-05-21 16:49:00,74.4,63.6,29.83,South,187,9.0,13.0,69,0.00,,,0.00,VWS V14.01,2013-05-21 20:49:00,
2013-05-21 16:51:00,74.2,63.4,29.83,SSE,158,6.0,13.0,69,0.00,,,0.00,VWS V14.01,2013-05-21 20:51:00,
2013-05-21 16:53:00,74.2,63.4,29.83,South,184,6.0,13.0,69,0.00,,,0.00,VWS V14.01,2013-05-21 20:53:00,
2013-05-21 16:57:00,74.0,63.6,29.83,SSW,193,7.0,13.0,70,0.00,,,0.00,VWS V14.01,2013-05-21 20:57:00,
2013-05-21 16:59:00,74.0,63.6,29.83,South,181,4.0,13.0,70,0.00,,,0.00,VWS V14.01,2013-05-21 20:59:00,
2013-05-21 17:00:00,74.0,63.6,29.83,SSE,150,5.0,13.0,70,0.00,,,0.00,VWS V14.01,2013-05-21 21:00:00,
2013-05-21 17:01:00,73.9,63.5,29.83,South,178,8.0,13.0,70,0.00,,,0.00,VWS V14.01,2013-05-21 21:01:00,
2013-05-21 17:02:00,73.9,63.5,29.83,South,173,2.0,13.0,70,0.00,,,0.00,VWS V14.01,2013-05-21 21:02:00,
2013-05-21 17:04:00,74.0,63.6,29.83,South,190,6.0,13.0,70,0.00,,,0.00,VWS V14.01,2013-05-21 21:04:00,
2013-05-21 17:22:00,74.0,64.0,29.83,South,169,0.0,5.0,71,0.00,,,0.00,VWS V14.01,2013-05-21 21:22:00,
2013-05-21 17:23:00,74.0,64.0,29.83,South,173,4.0,8.0,71,0.00,,,0.00,VWS V14.01,2013-05-21 21:23:00,
2013-05-21 17:25:00,74.0,64.0,29.83,SSE,167,6.0,8.0,71,0.00,,,0.00,VWS V14.01,2013-05-21 21:25:00,
2013-05-21 17:27:00,74.2,64.2,29.83,South,171,4.0,9.0,71,0.00,,,0.00,VWS V14.01,2013-05-21 21:27:00,
2013-05-21 17:28:00,74.4,64.4,29.83,SSE,167,6.0,9.0,71,0.00,,,0.00,VWS V14.01,2013-05-21 21:28:00,
2013-05-21 17:29:00,74.2,63.8,29.83,South,181,8.0,9.0,70,0.00,,,0.00,VWS V14.01,2013-05-21 21:29:00,
2013-05-21 17:32:00,74.2,63.8,29.83,South,182,4.0,9.0,70,0.00,,,0.00,VWS V14.01,2013-05-21 21:32:00,
2013-05-21 17:33:00,74.2,63.8,29.83,SSE,162,4.0,9.0,70,0.00,,,0.00,VWS V14.01,2013-05-21 21:33:00,
2013-05-21 17:34:00,74.2,63.8,29.83,South,170,4.0,11.0,70,0.00,,,0.00,VWS V14.01,2013-05-21 21:34:00,
2013-05-21 17:35:00,74.2,63.8,29.83,South,169,0.0,4.0,70,0.00,,,0.00,VWS V14.01,2013-05-21 21:35:00,
2013-05-21 17:38:00,74.2,64.2,29.83,SSW,200,6.0,9.0,71,0.00,,,0.00,VWS V14.01,2013-05-21 21:38:00,
2013-05-21 17:39:00,74.2,64.2,29.83,South,176,1.0,9.0,71,0.00,,,0.00,VWS V14.01,2013-05-21 21:39:00,
2013-05-21 17:40:00,74.2,64.2,29.83,South,179,7.0,10.0,71,0.00,,,0.00,VWS V14.01,2013-05-21 21:40:00,
2013-05-21 17:43:00,74.2,64.2,29.83,South,184,4.0,10.0,71,0.00,,,0.00,VWS V14.01,2013-05-21 21:43:00,
2013-05-21 17:46:00,74.2,64.2,29.83,South,188,9.0,14.0,71,0.00,,,0.00,VWS V14.01,2013-05-21 21:46:00,
2013-05-21 17:48:00,74.4,64.4,29.83,South,188,6.0,14.0,71,0.00,,,0.00,VWS V14.01,2013-05-21 21:48:00,
2013-05-21 17:49:00,74.4,64.4,29.82,South,172,4.0,14.0,71,0.00,,,0.00,VWS V14.01,2013-05-21 21:49:00,
2013-05-21 17:50:00,74.4,64.4,29.82,South,169,4.0,14.0,71,0.00,,,0.00,VWS V14.01,2013-05-21 21:50:00,
2013-05-21 17:52:00,74.2,63.8,29.82,SSE,152,5.0,14.0,70,0.00,,,0.00,VWS V14.01,2013-05-21 21:52:00,
2013-05-21 17:55:00,74.0,63.6,29.82,SE,143,5.0,14.0,70,0.00,,,0.00,VWS V14.01,2013-05-21 21:55:00,
2013-05-21 17:57:00,74.0,63.6,29.82,SSE,148,5.0,14.0,70,0.00,,,0.00,VWS V14.01,2013-05-21 21:57:00,
2013-05-21 17:58:00,74.0,64.0,29.82,SSE,162,1.0,14.0,71,0.00,,,0.00,VWS V14.01,2013-05-21 21:58:00,
2013-05-21 18:01:00,73.9,63.9,29.82,South,188,6.0,14.0,71,0.00,,,0.00,VWS V14.01,2013-05-21 22:01:00,
2013-05-21 18:02:00,73.9,63.9,29.82,SSW,196,4.0,14.0,71,0.00,,,0.00,VWS V14.01,2013-05-21 22:02:00,
2013-05-21 18:04:00,73.9,63.9,29.82,South,178,1.0,10.0,71,0.00,,,0.00,VWS V14.01,2013-05-21 22:04:00,
2013-05-21 18:08:00,73.9,64.3,29.82,SSW,197,0.0,10.0,72,0.00,,,0.00,VWS V14.01,2013-05-21 22:08:00,
2013-05-21 18:09:00,73.9,64.3,29.82,South,175,5.0,10.0,72,0.00,,,0.00,VWS V14.01,2013-05-21 22:09:00,
2013-05-21 18:11:00,73.9,64.3,29.82,South,172,2.0,10.0,72,0.00,,,0.00,VWS V14.01,2013-05-21 22:11:00,
2013-05-21 18:14:00,73.9,64.3,29.82,South,185,6.0,10.0,72,0.00,,,0.00,VWS V14.01,2013-05-21 22:14:00,
2013-05-21 18:16:00,73.9,64.3,29.82,South,189,1.0,10.0,72,0.00,,,0.00,VWS V14.01,2013-05-21 22:16:00,
2013-05-21 18:18:00,73.7,64.1,29.82,SSE,168,4.0,11.0,72,0.00,,,0.00,VWS V14.01,2013-05-21 22:18:00,
2013-05-21 18:21:00,73.5,63.9,29.82,South,187,6.0,11.0,72,0.00,,,0.00,VWS V14.01,2013-05-21 22:21:00,
2013-05-21 18:26:00,73.5,63.9,29.82,SSW,198,1.0,11.0,72,0.00,,,0.00,VWS V14.01,2013-05-21 22:26:00,
2013-05-21 18:28:00,73.5,63.9,29.82,SSW,198,0.0,11.0,72,0.00,,,0.00,VWS V14.01,2013-05-21 22:28:00,
2013-05-21 18:30:00,73.3,64.1,29.82,South,170,0.0,11.0,73,0.00,,,0.00,VWS V14.01,2013-05-21 22:30:00,
2013-05-21 18:33:00,73.5,64.3,29.82,South,170,0.0,11.0,73,0.00,,,0.00,VWS V14.01,2013-05-21 22:33:00,
2013-05-21 18:34:00,73.5,64.3,29.82,South,176,2.0,11.0,73,0.00,,,0.00,VWS V14.01,2013-05-21 22:34:00,
2013-05-21 18:35:00,73.7,64.5,29.82,South,175,0.0,2.0,73,0.00,,,0.00,VWS V14.01,2013-05-21 22:35:00,
2013-05-21 18:36:00,73.7,64.5,29.82,South,174,1.0,6.0,73,0.00,,,0.00,VWS V14.01,2013-05-21 22:36:00,
2013-05-21 18:38:00,73.7,64.1,29.82,SSE,163,7.0,7.0,72,0.00,,,0.00,VWS V14.01,2013-05-21 22:38:00,
2013-05-21 18:39:00,73.7,64.1,29.82,SSE,165,6.0,7.0,72,0.00,,,0.00,VWS V14.01,2013-05-21 22:39:00,
2013-05-21 18:41:00,73.5,63.9,29.82,South,184,5.0,11.0,72,0.00,,,0.00,VWS V14.01,2013-05-21 22:41:00,
2013-05-21 18:43:00,73.2,63.2,29.82,South,178,5.0,11.0,71,0.00,,,0.00,VWS V14.01,2013-05-21 22:43:00,
2013-05-21 18:44:00,73.2,63.6,29.82,South,178,2.0,11.0,72,0.00,,,0.00,VWS V14.01,2013-05-21 22:44:00,
2013-05-21 18:47:00,73.0,63.5,29.82,South,180,7.0,11.0,72,0.00,,,0.00,VWS V14.01,2013-05-21 22:47:00,
2013-05-21 18:48:00,73.0,63.5,29.82,South,180,0.0,11.0,72,0.00,,,0.00,VWS V14.01,2013-05-21 22:48:00,
2013-05-21 18:51:00,73.0,63.8,29.82,South,188,8.0,11.0,73,0.00,,,0.00,VWS V14.01,2013-05-21 22:51:00,
2013-05-21 18:53:00,73.0,63.8,29.82,South,187,5.0,11.0,73,0.00,,,0.00,VWS V14.01,2013-05-21 22:53:00,
2013-05-21 18:54:00,73.0,63.8,29.82,South,180,1.0,11.0,73,0.00,,,0.00,VWS V14.01,2013-05-21 22:54:00,
2013-05-21 18:55:00,73.0,64.2,29.82,South,180,0.0,11.0,74,0.00,,,0.00,VWS V14.01,2013-05-21 22:55:00,
2013-05-21 19:00:00,73.2,64.0,29.82,South,176,0.0,11.0,73,0.00,,,0.00,VWS V14.01,2013-05-21 23:00:00,
2013-05-21 19:02:00,73.2,64.0,29.82,South,182,0.0,11.0,73,0.00,,,0.00,VWS V14.01,2013-05-21 23:02:00,
2013-05-21 19:03:00,73.0,63.8,29.82,South,180,0.0,11.0,73,0.00,,,0.00,VWS V14.01,2013-05-21 23:03:00,
2013-05-21 19:04:00,73.0,63.8,29.82,South,180,0.0,11.0,73,0.00,,,0.00,VWS V14.01,2013-05-21 23:04:00,
2013-05-21 19:05:00,73.0,63.8,29.82,South,178,0.0,0.0,73,0.00,,,0.00,VWS V14.01,2013-05-21 23:05:00,
2013-05-21 19:09:00,72.8,63.7,29.82,South,174,0.0,5.0,73,0.00,,,0.00,VWS V14.01,2013-05-21 23:09:00,
2013-05-21 19:10:00,72.8,63.7,29.82,South,170,0.0,5.0,73,0.00,,,0.00,VWS V14.01,2013-05-21 23:10:00,
2013-05-21 19:11:00,72.8,63.7,29.82,South,170,0.0,5.0,73,0.00,,,0.00,VWS V14.01,2013-05-21 23:11:00,
2013-05-21 19:16:00,72.5,63.4,29.82,SSW,192,6.0,9.0,73,0.00,,,0.00,VWS V14.01,2013-05-21 23:16:00,
2013-05-21 19:17:00,72.3,63.6,29.82,South,180,2.0,9.0,74,0.00,,,0.00,VWS V14.01,2013-05-21 23:17:00,
2013-05-21 19:18:00,72.3,63.6,29.82,South,182,5.0,9.0,74,0.00,,,0.00,VWS V14.01,2013-05-21 23:18:00,
2013-05-21 19:19:00,72.1,63.4,29.82,South,177,6.0,9.0,74,0.00,,,0.00,VWS V14.01,2013-05-21 23:19:00,
2013-05-21 19:20:00,72.1,63.4,29.82,South,178,0.0,9.0,74,0.00,,,0.00,VWS V14.01,2013-05-21 23:20:00,
2013-05-21 19:23:00,71.8,63.5,29.82,South,186,0.0,10.0,75,0.00,,,0.00,VWS V14.01,2013-05-21 23:23:00,
2013-05-21 19:24:00,71.8,63.5,29.82,South,182,2.0,10.0,75,0.00,,,0.00,VWS V14.01,2013-05-21 23:24:00,
2013-05-21 19:25:00,71.8,63.5,29.82,South,177,4.0,10.0,75,0.00,,,0.00,VWS V14.01,2013-05-21 23:25:00,
2013-05-21 19:26:00,71.8,63.5,29.82,South,182,5.0,10.0,75,0.00,,,0.00,VWS V14.01,2013-05-21 23:26:00,
2013-05-21 19:28:00,71.6,63.6,29.82,South,181,4.0,10.0,76,0.00,,,0.00,VWS V14.01,2013-05-21 23:28:00,
2013-05-21 19:30:00,71.5,63.5,29.82,South,190,7.0,11.0,76,0.00,,,0.00,VWS V14.01,2013-05-21 23:30:00,
2013-05-21 19:31:00,71.3,63.3,29.82,South,188,7.0,11.0,76,0.00,,,0.00,VWS V14.01,2013-05-21 23:31:00,
2013-05-21 19:32:00,71.1,63.2,29.82,SSW,202,8.0,11.0,76,0.00,,,0.00,VWS V14.01,2013-05-21 23:32:00,
2013-05-21 19:34:00,70.9,63.0,29.82,SSW,196,6.0,11.0,76,0.00,,,0.00,VWS V14.01,2013-05-21 23:34:00,
2013-05-21 19:37:00,70.8,63.2,29.82,SSW,197,4.0,9.0,77,0.00,,,0.00,VWS V14.01,2013-05-21 23:37:00,
2013-05-21 19:38:00,70.8,63.6,29.82,SSW,196,2.0,9.0,78,0.00,,,0.00,VWS V14.01,2013-05-21 23:38:00,
2013-05-21 19:40:00,70.6,63.4,29.82,SSW,193,7.0,9.0,78,0.00,,,0.00,VWS V14.01,2013-05-21 23:40:00,
2013-05-21 19:41:00,70.6,63.4,29.82,South,188,0.0,9.0,78,0.00,,,0.00,VWS V14.01,2013-05-21 23:41:00,
2013-05-21 19:43:00,70.4,63.6,29.82,South,176,4.0,9.0,79,0.00,,,0.00,VWS V14.01,2013-05-21 23:43:00,
2013-05-21 19:45:00,70.4,63.9,29.82,South,176,2.0,9.0,80,0.00,,,0.00,VWS V14.01,2013-05-21 23:45:00,
2013-05-21 19:46:00,70.4,63.9,29.82,South,177,0.0,9.0,80,0.00,,,0.00,VWS V14.01,2013-05-21 23:46:00,
2013-05-21 19:51:00,70.4,63.9,29.83,South,186,2.0,9.0,80,0.00,,,0.00,VWS V14.01,2013-05-21 23:51:00,
2013-05-21 19:52:00,70.4,63.9,29.83,South,184,0.0,9.0,80,0.00,,,0.00,VWS V14.01,2013-05-21 23:52:00,
2013-05-21 19:53:00,70.3,64.2,29.83,South,183,0.0,9.0,81,0.00,,,0.00,VWS V14.01,2013-05-21 23:53:00,
2013-05-21 19:54:00,70.3,64.2,29.83,South,182,0.0,9.0,81,0.00,,,0.00,VWS V14.01,2013-05-21 23:54:00,
2013-05-21 19:55:00,70.3,64.2,29.83,South,182,0.0,9.0,81,0.00,,,0.00,VWS V14.01,2013-05-21 23:55:00,
2013-05-21 20:00:00,70.1,64.0,29.83,South,182,2.0,9.0,81,0.00,,,0.00,VWS V14.01,2013-05-22 00:00:00,
2013-05-21 20:01:00,70.1,64.0,29.83,South,182,5.0,9.0,81,0.00,,,0.00,VWS V14.01,2013-05-22 00:01:00,
2013-05-21 20:02:00,70.1,64.0,29.83,South,182,0.0,9.0,81,0.00,,,0.00,VWS V14.01,2013-05-22 00:02:00,
2013-05-21 20:04:00,70.1,64.4,29.83,South,182,0.0,9.0,82,0.00,,,0.00,VWS V14.01,2013-05-22 00:04:00,
2013-05-21 20:07:00,70.1,64.4,29.83,South,182,0.0,0.0,82,0.00,,,0.00,VWS V14.01,2013-05-22 00:07:00,
2013-05-21 20:08:00,70.1,64.4,29.83,South,182,0.0,0.0,82,0.00,,,0.00,VWS V14.01,2013-05-22 00:08:00,
2013-05-21 20:09:00,70.1,64.4,29.83,South,182,0.0,0.0,82,0.00,,,0.00,VWS V14.01,2013-05-22 00:09:00,
2013-05-21 20:10:00,70.1,64.4,29.83,South,182,0.0,0.0,82,0.00,,,0.00,VWS V14.01,2013-05-22 00:10:00,
2013-05-21 20:13:00,69.9,64.2,29.83,South,182,0.0,0.0,82,0.00,,,0.00,VWS V14.01,2013-05-22 00:13:00,
2013-05-21 20:15:00,69.8,63.7,29.83,South,182,0.0,0.0,81,0.00,,,0.00,VWS V14.01,2013-05-22 00:15:00,
2013-05-21 20:16:00,69.8,63.7,29.83,South,182,0.0,0.0,81,0.00,,,0.00,VWS V14.01,2013-05-22 00:16:00,
2013-05-21 20:18:00,69.4,63.3,29.83,South,182,0.0,0.0,81,0.00,,,0.00,VWS V14.01,2013-05-22 00:18:00,
2013-05-21 20:21:00,69.1,63.0,29.83,South,182,0.0,0.0,81,0.00,,,0.00,VWS V14.01,2013-05-22 00:21:00,
2013-05-21 20:22:00,68.9,62.8,29.83,South,182,3.0,5.0,81,0.00,,,0.00,VWS V14.01,2013-05-22 00:22:00,
2013-05-21 20:23:00,68.9,62.8,29.83,South,182,2.0,6.0,81,0.00,,,0.00,VWS V14.01,2013-05-22 00:23:00,
2013-05-21 20:25:00,68.9,62.8,29.83,South,182,4.0,6.0,81,0.00,,,0.00,VWS V14.01,2013-05-22 00:25:00,
2013-05-21 20:29:00,69.1,63.7,29.83,South,189,1.0,7.0,83,0.00,,,0.00,VWS V14.01,2013-05-22 00:29:00,
2013-05-21 20:30:00,69.3,64.3,29.83,South,189,0.0,7.0,84,0.00,,,0.00,VWS V14.01,2013-05-22 00:30:00,
2013-05-21 20:31:00,69.4,64.4,29.83,South,189,0.0,7.0,84,0.00,,,0.00,VWS V14.01,2013-05-22 00:31:00,
2013-05-21 20:33:00,69.4,64.0,29.83,South,188,0.0,7.0,83,0.00,,,0.00,VWS V14.01,2013-05-22 00:33:00,
2013-05-21 20:36:00,69.3,63.9,29.83,South,188,0.0,0.0,83,0.00,,,0.00,VWS V14.01,2013-05-22 00:36:00,
2013-05-21 20:37:00,69.3,63.9,29.83,South,188,0.0,0.0,83,0.00,,,0.00,VWS V14.01,2013-05-22 00:37:00,
2013-05-21 20:38:00,69.1,63.7,29.83,South,188,0.0,0.0,83,0.00,,,0.00,VWS V14.01,2013-05-22 00:38:00,
2013-05-21 20:39:00,69.1,63.7,29.83,South,188,0.0,0.0,83,0.00,,,0.00,VWS V14.01,2013-05-22 00:39:00,
2013-05-21 20:43:00,69.1,64.1,29.83,South,188,0.0,4.0,84,0.00,,,0.00,VWS V14.01,2013-05-22 00:43:00,
2013-05-21 20:44:00,69.1,64.1,29.83,South,188,0.0,5.0,84,0.00,,,0.00,VWS V14.01,2013-05-22 00:44:00,
2013-05-21 20:46:00,69.3,64.3,29.83,South,188,0.0,5.0,84,0.00,,,0.00,VWS V14.01,2013-05-22 00:46:00,
2013-05-21 20:47:00,69.3,64.3,29.83,South,188,0.0,5.0,84,0.00,,,0.00,VWS V14.01,2013-05-22 00:47:00,
2013-05-21 20:48:00,69.4,64.4,29.83,South,188,0.0,5.0,84,0.00,,,0.00,VWS V14.01,2013-05-22 00:48:00,
2013-05-21 20:49:00,69.4,64.4,29.83,South,188,5.0,5.0,84,0.00,,,0.00,VWS V14.01,2013-05-22 00:49:00,
2013-05-21 20:53:00,69.6,64.9,29.83,South,188,0.0,5.0,85,0.00,,,0.00,VWS V14.01,2013-05-22 00:53:00,
2013-05-21 20:54:00,69.6,64.9,29.83,South,188,0.0,5.0,85,0.00,,,0.00,VWS V14.01,2013-05-22 00:54:00,
2013-05-21 20:57:00,69.4,64.7,29.83,South,188,0.0,5.0,85,0.00,,,0.00,VWS V14.01,2013-05-22 00:57:00,
2013-05-21 20:59:00,69.4,64.7,29.83,South,188,0.0,5.0,85,0.00,,,0.00,VWS V14.01,2013-05-22 00:59:00,
2013-05-21 21:02:00,69.3,64.3,29.83,South,188,0.0,5.0,84,0.00,,,0.00,VWS V14.01,2013-05-22 01:02:00,
2013-05-21 21:04:00,69.1,64.1,29.83,South,188,0.0,5.0,84,0.00,,,0.00,VWS V14.01,2013-05-22 01:04:00,
2013-05-21 21:06:00,68.8,63.4,29.83,South,188,0.0,0.0,83,0.00,,,0.00,VWS V14.01,2013-05-22 01:06:00,
2013-05-21 21:07:00,68.6,63.6,29.83,South,188,0.0,0.0,84,0.00,,,0.00,VWS V14.01,2013-05-22 01:07:00,
2013-05-21 21:09:00,68.4,63.4,29.83,South,185,0.0,2.0,84,0.00,,,0.00,VWS V14.01,2013-05-22 01:09:00,
2013-05-21 21:11:00,68.3,63.3,29.83,South,184,3.0,5.0,84,0.00,,,0.00,VWS V14.01,2013-05-22 01:11:00,
2013-05-21 21:12:00,68.3,63.3,29.83,South,184,0.0,5.0,84,0.00,,,0.00,VWS V14.01,2013-05-22 01:12:00,
2013-05-21 21:14:00,68.1,63.1,29.83,South,184,0.0,5.0,84,0.00,,,0.00,VWS V14.01,2013-05-22 01:14:00,
2013-05-21 21:16:00,68.1,63.1,29.83,South,184,0.0,5.0,84,0.00,,,0.00,VWS V14.01,2013-05-22 01:16:00,
2013-05-21 21:18:00,68.1,63.1,29.83,South,184,0.0,5.0,84,0.00,,,0.00,VWS V14.01,2013-05-22 01:18:00,
2013-05-21 21:21:00,67.9,63.2,29.84,South,184,0.0,5.0,85,0.00,,,0.00,VWS V14.01,2013-05-22 01:21:00,
2013-05-21 21:22:00,67.9,63.2,29.84,South,184,0.0,5.0,85,0.00,,,0.00,VWS V14.01,2013-05-22 01:22:00,
2013-05-21 21:23:00,67.9,63.2,29.84,South,184,0.0,5.0,85,0.00,,,0.00,VWS V14.01,2013-05-22 01:23:00,
2013-05-21 21:27:00,67.6,62.9,29.84,South,184,0.0,5.0,85,0.00,,,0.00,VWS V14.01,2013-05-22 01:27:00,
2013-05-21 21:28:00,67.6,62.9,29.84,South,184,0.0,5.0,85,0.00,,,0.00,VWS V14.01,2013-05-22 01:28:00,
2013-05-21 21:30:00,67.6,62.9,29.84,South,184,4.0,5.0,85,0.00,,,0.00,VWS V14.01,2013-05-22 01:30:00,
2013-05-21 21:34:00,67.4,62.7,29.83,South,180,4.0,7.0,85,0.00,,,0.00,VWS V14.01,2013-05-22 01:34:00,
2013-05-21 21:36:00,67.4,63.1,29.83,South,180,2.0,6.0,86,0.00,,,0.00,VWS V14.01,2013-05-22 01:36:00,
2013-05-21 21:40:00,67.4,63.1,29.83,South,180,3.0,6.0,86,0.00,,,0.00,VWS V14.01,2013-05-22 01:40:00,
2013-05-21 21:41:00,67.4,63.1,29.83,South,180,2.0,6.0,86,0.00,,,0.00,VWS V14.01,2013-05-22 01:41:00,
2013-05-21 21:42:00,67.4,63.4,29.83,South,180,0.0,6.0,87,0.00,,,0.00,VWS V14.01,2013-05-22 01:42:00,
2013-05-21 21:45:00,67.6,63.6,29.83,South,180,3.0,7.0,87,0.00,,,0.00,VWS V14.01,2013-05-22 01:45:00,
2013-05-21 21:46:00,67.4,63.4,29.83,South,180,4.0,7.0,87,0.00,,,0.00,VWS V14.01,2013-05-22 01:46:00,
2013-05-21 21:47:00,67.4,63.4,29.83,South,180,2.0,7.0,87,0.00,,,0.00,VWS V14.01,2013-05-22 01:47:00,
2013-05-21 21:50:00,67.4,63.4,29.83,South,180,4.0,7.0,87,0.00,,,0.00,VWS V14.01,2013-05-22 01:50:00,
2013-05-21 21:52:00,67.6,63.9,29.83,South,180,0.0,7.0,88,0.00,,,0.00,VWS V14.01,2013-05-22 01:52:00,
2013-05-21 21:53:00,67.6,63.9,29.83,South,180,0.0,7.0,88,0.00,,,0.00,VWS V14.01,2013-05-22 01:53:00,
2013-05-21 21:55:00,67.6,63.9,29.83,South,180,0.0,7.0,88,0.00,,,0.00,VWS V14.01,2013-05-22 01:55:00,
2013-05-21 21:57:00,67.6,63.9,29.83,South,180,0.0,7.0,88,0.00,,,0.00,VWS V14.01,2013-05-22 01:57:00,
2013-05-21 21:58:00,67.6,63.9,29.83,South,180,0.0,7.0,88,0.00,,,0.00,VWS V14.01,2013-05-22 01:58:00,
2013-05-21 21:59:00,67.6,63.9,29.83,South,180,0.0,7.0,88,0.00,,,0.00,VWS V14.01,2013-05-22 01:59:00,
2013-05-21 22:00:00,67.6,63.9,29.83,South,180,0.0,7.0,88,0.00,,,0.00,VWS V14.01,2013-05-22 02:00:00,
2013-05-21 22:03:00,67.8,64.1,29.83,South,180,0.0,7.0,88,0.00,,,0.00,VWS V14.01,2013-05-22 02:03:00,
2013-05-21 22:04:00,67.8,64.1,29.84,South,180,0.0,7.0,88,0.00,,,0.00,VWS V14.01,2013-05-22 02:04:00,
2013-05-21 22:05:00,67.8,64.1,29.84,South,180,0.0,3.0,88,0.00,,,0.00,VWS V14.01,2013-05-22 02:05:00,
2013-05-21 22:09:00,67.8,64.1,29.84,South,178,0.0,3.0,88,0.00,,,0.00,VWS V14.01,2013-05-22 02:09:00,
2013-05-21 22:10:00,67.8,64.1,29.84,South,178,7.0,7.0,88,0.00,,,0.00,VWS V14.01,2013-05-22 02:10:00,
2013-05-21 22:13:00,67.8,64.1,29.84,South,180,0.0,7.0,88,0.00,,,0.00,VWS V14.01,2013-05-22 02:13:00,
2013-05-21 22:14:00,67.8,64.1,29.84,South,178,0.0,7.0,88,0.00,,,0.00,VWS V14.01,2013-05-22 02:14:00,
2013-05-21 22:15:00,67.6,63.9,29.84,South,178,0.0,7.0,88,0.00,,,0.00,VWS V14.01,2013-05-22 02:15:00,
2013-05-21 22:16:00,67.6,63.9,29.84,South,178,0.0,7.0,88,0.00,,,0.00,VWS V14.01,2013-05-22 02:16:00,
2013-05-21 22:20:00,67.3,63.6,29.83,South,178,4.0,7.0,88,0.00,,,0.00,VWS V14.01,2013-05-22 02:20:00,
2013-05-21 22:21:00,67.3,63.6,29.83,South,178,5.0,7.0,88,0.00,,,0.00,VWS V14.01,2013-05-22 02:21:00,
2013-05-21 22:22:00,67.1,63.4,29.83,South,175,8.0,8.0,88,0.00,,,0.00,VWS V14.01,2013-05-22 02:22:00,
2013-05-21 22:27:00,66.9,63.2,29.83,South,175,2.0,8.0,88,0.00,,,0.00,VWS V14.01,2013-05-22 02:27:00,
2013-05-21 22:28:00,66.9,63.2,29.83,South,175,0.0,8.0,88,0.00,,,0.00,VWS V14.01,2013-05-22 02:28:00,
2013-05-21 22:32:00,66.8,63.5,29.83,South,175,0.0,8.0,89,0.00,,,0.00,VWS V14.01,2013-05-22 02:32:00,
2013-05-21 22:33:00,66.8,63.5,29.83,South,175,0.0,8.0,89,0.00,,,0.00,VWS V14.01,2013-05-22 02:33:00,
2013-05-21 22:34:00,66.8,63.5,29.82,South,175,0.0,8.0,89,0.00,,,0.00,VWS V14.01,2013-05-22 02:34:00,
2013-05-21 22:36:00,66.8,63.5,29.82,South,175,0.0,0.0,89,0.00,,,0.00,VWS V14.01,2013-05-22 02:36:00,
2013-05-21 22:39:00,66.8,63.5,29.82,South,175,0.0,0.0,89,0.00,,,0.00,VWS V14.01,2013-05-22 02:39:00,
2013-05-21 22:42:00,66.8,63.5,29.82,South,175,0.0,0.0,89,0.00,,,0.00,VWS V14.01,2013-05-22 02:42:00,
2013-05-21 22:45:00,66.8,63.5,29.82,South,175,4.0,7.0,89,0.00,,,0.00,VWS V14.01,2013-05-22 02:45:00,
2013-05-21 22:46:00,66.8,63.5,29.82,South,175,0.0,7.0,89,0.00,,,0.00,VWS V14.01,2013-05-22 02:46:00,
2013-05-21 22:47:00,66.8,63.5,29.82,South,175,0.0,7.0,89,0.00,,,0.00,VWS V14.01,2013-05-22 02:47:00,
2013-05-21 22:48:00,66.8,63.5,29.82,South,175,0.0,7.0,89,0.00,,,0.00,VWS V14.01,2013-05-22 02:48:00,
2013-05-21 22:50:00,66.8,63.5,29.82,South,175,0.0,7.0,89,0.00,,,0.00,VWS V14.01,2013-05-22 02:50:00,
2013-05-21 22:51:00,66.8,63.8,29.82,South,175,0.0,7.0,90,0.00,,,0.00,VWS V14.01,2013-05-22 02:51:00,
2013-05-21 22:55:00,66.9,63.9,29.82,South,175,0.0,7.0,90,0.00,,,0.00,VWS V14.01,2013-05-22 02:55:00,
2013-05-21 22:56:00,66.9,63.9,29.82,South,175,5.0,7.0,90,0.00,,,0.00,VWS V14.01,2013-05-22 02:56:00,
2013-05-21 22:59:00,67.1,64.1,29.82,South,175,1.0,7.0,90,0.00,,,0.00,VWS V14.01,2013-05-22 02:59:00,
2013-05-21 23:00:00,67.1,64.1,29.82,South,175,0.0,7.0,90,0.00,,,0.00,VWS V14.01,2013-05-22 03:00:00,
2013-05-21 23:03:00,67.3,64.6,29.82,South,175,0.0,7.0,91,0.00,,,0.00,VWS V14.01,2013-05-22 03:03:00,
2013-05-21 23:04:00,67.3,64.6,29.82,South,175,0.0,0.0,91,0.00,,,0.00,VWS V14.01,2013-05-22 03:04:00,
2013-05-21 23:05:00,67.3,64.6,29.82,South,175,0.0,0.0,91,0.00,,,0.00,VWS V14.01,2013-05-22 03:05:00,
2013-05-21 23:07:00,67.4,64.7,29.82,South,175,0.0,0.0,91,0.00,,,0.00,VWS V14.01,2013-05-22 03:07:00,
2013-05-21 23:08:00,67.4,64.7,29.82,South,175,0.0,0.0,91,0.00,,,0.00,VWS V14.01,2013-05-22 03:08:00,
2013-05-21 23:10:00,67.6,64.9,29.82,South,175,0.0,0.0,91,0.00,,,0.00,VWS V14.01,2013-05-22 03:10:00,
2013-05-21 23:14:00,67.8,65.1,29.82,South,175,0.0,0.0,91,0.00,,,0.00,VWS V14.01,2013-05-22 03:14:00,
2013-05-21 23:16:00,67.8,65.1,29.82,South,175,0.0,0.0,91,0.00,,,0.00,VWS V14.01,2013-05-22 03:16:00,
2013-05-21 23:18:00,67.6,64.2,29.82,SSE,157,6.0,7.0,89,0.00,,,0.00,VWS V14.01,2013-05-22 03:18:00,
2013-05-21 23:19:00,67.3,63.6,29.82,SSE,157,2.0,7.0,88,0.00,,,0.00,VWS V14.01,2013-05-22 03:19:00,
2013-05-21 23:21:00,66.8,63.5,29.82,SSE,157,0.0,7.0,89,0.00,,,0.00,VWS V14.01,2013-05-22 03:21:00,
2013-05-21 23:23:00,66.3,63.0,29.82,SSE,157,2.0,7.0,89,0.00,,,0.00,VWS V14.01,2013-05-22 03:23:00,
2013-05-21 23:27:00,65.5,62.2,29.82,SSE,157,1.0,7.0,89,0.00,,,0.00,VWS V14.01,2013-05-22 03:27:00,
2013-05-21 23:28:00,65.3,62.0,29.82,SSE,157,0.0,7.0,89,0.00,,,0.00,VWS V14.01,2013-05-22 03:28:00,
2013-05-21 23:30:00,65.2,61.9,29.82,SSE,157,0.0,7.0,89,0.00,,,0.00,VWS V14.01,2013-05-22 03:30:00,
2013-05-21 23:31:00,65.0,61.7,29.82,SSE,157,0.0,7.0,89,0.00,,,0.00,VWS V14.01,2013-05-22 03:31:00,
2013-05-21 23:32:00,65.0,62.0,29.82,SSE,157,0.0,7.0,90,0.00,,,0.00,VWS V14.01,2013-05-22 03:32:00,
2013-05-21 23:35:00,65.0,62.0,29.82,SSE,157,0.0,0.0,90,0.00,,,0.00,VWS V14.01,2013-05-22 03:35:00,
2013-05-21 23:37:00,65.2,62.2,29.82,SSE,157,0.0,0.0,90,0.00,,,0.00,VWS V14.01,2013-05-22 03:37:00,
2013-05-21 23:39:00,65.2,62.2,29.82,SSE,157,0.0,0.0,90,0.00,,,0.00,VWS V14.01,2013-05-22 03:39:00,
2013-05-21 23:40:00,65.2,62.2,29.82,SSE,157,0.0,0.0,90,0.00,,,0.00,VWS V14.01,2013-05-22 03:40:00,
2013-05-21 23:44:00,65.3,62.6,29.82,SSE,157,0.0,0.0,91,0.00,,,0.00,VWS V14.01,2013-05-22 03:44:00,
2013-05-21 23:45:00,65.3,62.6,29.82,SSE,157,0.0,0.0,91,0.00,,,0.00,VWS V14.01,2013-05-22 03:45:00,
2013-05-21 23:46:00,65.3,62.6,29.82,SSE,157,0.0,0.0,91,0.00,,,0.00,VWS V14.01,2013-05-22 03:46:00,
2013-05-21 23:47:00,65.3,62.6,29.82,SSE,157,0.0,0.0,91,0.00,,,0.00,VWS V14.01,2013-05-22 03:47:00,
2013-05-21 23:51:00,65.3,62.6,29.82,SSE,157,0.0,0.0,91,0.00,,,0.00,VWS V14.01,2013-05-22 03:51:00,
2013-05-21 23:52:00,65.2,62.5,29.82,SSE,157,0.0,0.0,91,0.00,,,0.00,VWS V14.01,2013-05-22 03:52:00,
2013-05-21 23:53:00,65.2,62.2,29.82,SSE,159,2.0,8.0,90,0.00,,,0.00,VWS V14.01,2013-05-22 03:53:00,
2013-05-21 23:55:00,65.2,62.5,29.82,SSE,158,0.0,8.0,91,0.00,,,0.00,VWS V14.01,2013-05-22 03:55:00,
2013-05-21 23:57:00,65.2,62.5,29.82,SSE,159,0.0,8.0,91,0.00,,,0.00,VWS V14.01,2013-05-22 03:57:00,
2013-05-21 23:58:00,65.2,62.5,29.82,SSE,159,0.0,8.0,91,0.00,,,0.00,VWS V14.01,2013-05-22 03:58:00,